Time,TemperatureF,DewpointF,PressureIn,WindDirection,WindDirectionDegrees,WindSpeedMPH,WindSpeedGustMPH,Humidity,HourlyPrecipIn,Conditions,Clouds,dailyrainin,SolarRadiationWatts/m^2,SoftwareType,DateUTC
2013-11-27 00:00:00,34.2,31.0,29.67,North,358,0.0,2.0,88,0.00,,,1.29,0,WeatherCatV1.20B785,2013-11-27 05:00:00,
2013-11-27 00:01:00,34.2,31.0,29.67,North,358,0.0,0.0,88,0.00,,,0.00,0,WeatherCatV1.20B785,2013-11-27 05:01:00,
2013-11-27 00:02:00,34.2,31.0,29.68,North,358,0.0,0.0,88,0.00,,,0.00,0,WeatherCatV1.20B785,2013-11-27 05:02:00,
2013-11-27 00:06:00,34.2,31.0,29.68,NW,326,1.0,2.0,88,0.00,,,0.01,0,WeatherCatV1.20B785,2013-11-27 05:06:00,
2013-11-27 00:07:00,34.2,31.0,29.68,NW,323,1.0,2.0,88,0.00,,,0.01,0,WeatherCatV1.20B785,2013-11-27 05:07:00,
2013-11-27 00:11:00,34.2,31.0,29.67,NW,322,1.0,2.0,88,0.00,,,0.01,0,WeatherCatV1.20B785,2013-11-27 05:11:00,
2013-11-27 00:12:00,34.2,31.0,29.67,NW,322,1.0,2.0,88,0.00,,,0.01,0,WeatherCatV1.20B785,2013-11-27 05:12:00,
2013-11-27 00:13:00,34.2,31.0,29.66,NW,322,1.0,2.0,88,0.00,,,0.01,0,WeatherCatV1.20B785,2013-11-27 05:13:00,
2013-11-27 00:16:00,34.1,30.9,29.66,NW,322,0.0,1.0,88,0.00,,,0.01,0,WeatherCatV1.20B785,2013-11-27 05:16:00,
2013-11-27 00:17:00,34.1,30.9,29.66,NW,322,0.0,1.0,88,0.00,,,0.01,0,WeatherCatV1.20B785,2013-11-27 05:17:00,
2013-11-27 00:18:00,34.1,30.9,29.66,NW,322,0.0,0.0,88,0.00,,,0.01,0,WeatherCatV1.20B785,2013-11-27 05:18:00,
2013-11-27 00:21:00,34.1,30.9,29.66,NW,322,0.0,0.0,88,0.04,,,0.02,0,WeatherCatV1.20B785,2013-11-27 05:21:00,
2013-11-27 00:22:00,34.1,30.9,29.66,NW,322,0.0,0.0,88,0.04,,,0.02,0,WeatherCatV1.20B785,2013-11-27 05:22:00,
2013-11-27 00:23:00,34.1,30.9,29.66,NW,322,0.0,2.0,88,0.04,,,0.02,0,WeatherCatV1.20B785,2013-11-27 05:23:00,
2013-11-27 00:24:00,34.1,30.9,29.66,NW,322,0.0,2.0,88,0.04,,,0.02,0,WeatherCatV1.20B785,2013-11-27 05:24:00,
2013-11-27 00:26:00,34.1,30.9,29.67,NW,321,1.0,2.0,88,0.04,,,0.02,0,WeatherCatV1.20B785,2013-11-27 05:26:00,
2013-11-27 00:27:00,34.1,30.9,29.66,NW,321,1.0,2.0,88,0.04,,,0.02,0,WeatherCatV1.20B785,2013-11-27 05:27:00,
2013-11-27 00:29:00,34.1,30.9,29.66,NW,321,0.0,1.0,88,0.04,,,0.02,0,WeatherCatV1.20B785,2013-11-27 05:29:00,
2013-11-27 00:30:00,34.1,30.9,29.66,NW,321,0.0,1.0,88,0.04,,,0.02,0,WeatherCatV1.20B785,2013-11-27 05:30:00,
2013-11-27 00:31:00,34.1,30.9,29.66,NW,321,0.0,0.0,88,0.04,,,0.02,0,WeatherCatV1.20B785,2013-11-27 05:31:00,
2013-11-27 00:32:00,34.1,30.9,29.66,NW,321,0.0,0.0,88,0.04,,,0.02,0,WeatherCatV1.20B785,2013-11-27 05:32:00,
2013-11-27 00:35:00,34.1,30.9,29.66,NW,321,0.0,0.0,88,0.04,,,0.02,0,WeatherCatV1.20B785,2013-11-27 05:35:00,
2013-11-27 00:36:00,34.1,30.9,29.66,NW,321,0.0,0.0,88,0.00,,,0.02,0,WeatherCatV1.20B785,2013-11-27 05:36:00,
2013-11-27 00:37:00,34.1,30.9,29.65,ENE,67,2.0,2.0,88,0.00,,,0.02,0,WeatherCatV1.20B785,2013-11-27 05:37:00,
2013-11-27 00:38:00,34.2,31.0,29.65,East,98,2.0,2.0,88,0.00,,,0.02,0,WeatherCatV1.20B785,2013-11-27 05:38:00,
2013-11-27 00:41:00,34.2,31.0,29.66,ESE,114,0.0,0.0,88,0.00,,,0.02,0,WeatherCatV1.20B785,2013-11-27 05:41:00,
2013-11-27 00:42:00,34.2,31.0,29.65,ESE,114,0.0,0.0,88,0.00,,,0.02,0,WeatherCatV1.20B785,2013-11-27 05:42:00,
2013-11-27 00:43:00,34.2,31.0,29.65,ESE,114,0.0,0.0,88,0.00,,,0.02,0,WeatherCatV1.20B785,2013-11-27 05:43:00,
2013-11-27 00:46:00,34.2,31.0,29.65,ESE,114,0.0,0.0,88,0.00,,,0.02,0,WeatherCatV1.20B785,2013-11-27 05:46:00,
2013-11-27 00:47:00,34.2,31.0,29.65,ESE,114,0.0,0.0,88,0.00,,,0.02,0,WeatherCatV1.20B785,2013-11-27 05:47:00,
2013-11-27 00:48:00,34.2,31.0,29.65,ESE,114,1.0,1.0,88,0.00,,,0.02,0,WeatherCatV1.20B785,2013-11-27 05:48:00,
2013-11-27 00:52:00,34.2,31.0,29.65,ESE,114,0.0,0.0,88,0.00,,,0.02,0,WeatherCatV1.20B785,2013-11-27 05:52:00,
2013-11-27 00:53:00,34.2,31.0,29.65,ESE,114,0.0,0.0,88,0.00,,,0.02,0,WeatherCatV1.20B785,2013-11-27 05:53:00,
2013-11-27 00:54:00,34.2,31.0,29.65,ESE,114,0.0,0.0,88,0.00,,,0.02,0,WeatherCatV1.20B785,2013-11-27 05:54:00,
2013-11-27 00:57:00,34.3,31.1,29.65,ESE,114,0.0,1.0,88,0.00,,,0.02,0,WeatherCatV1.20B785,2013-11-27 05:57:00,
2013-11-27 00:58:00,34.2,31.0,29.64,ESE,114,0.0,1.0,88,0.00,,,0.02,0,WeatherCatV1.20B785,2013-11-27 05:58:00,
2013-11-27 00:59:00,34.2,31.0,29.65,ESE,114,0.0,0.0,88,0.00,,,0.02,0,WeatherCatV1.20B785,2013-11-27 05:59:00,
2013-11-27 01:03:00,34.3,31.1,29.64,ESE,114,0.0,0.0,88,0.00,,,0.02,0,WeatherCatV1.20B785,2013-11-27 06:03:00,
2013-11-27 01:04:00,34.3,31.1,29.64,ESE,114,0.0,0.0,88,0.00,,,0.02,0,WeatherCatV1.20B785,2013-11-27 06:04:00,
2013-11-27 01:05:00,34.3,31.1,29.64,ESE,115,1.0,1.0,88,0.00,,,0.02,0,WeatherCatV1.20B785,2013-11-27 06:05:00,
2013-11-27 01:08:00,34.3,31.1,29.64,West,272,1.0,3.0,88,0.00,,,0.02,0,WeatherCatV1.20B785,2013-11-27 06:08:00,
2013-11-27 01:09:00,34.3,31.1,29.64,West,272,1.0,2.0,88,0.00,,,0.02,0,WeatherCatV1.20B785,2013-11-27 06:09:00,
2013-11-27 01:10:00,34.3,31.1,29.64,West,272,1.0,2.0,88,0.00,,,0.02,0,WeatherCatV1.20B785,2013-11-27 06:10:00,
2013-11-27 01:14:00,34.3,31.1,29.65,West,272,2.0,2.0,88,0.00,,,0.02,0,WeatherCatV1.20B785,2013-11-27 06:14:00,
2013-11-27 01:15:00,34.4,31.2,29.64,West,272,1.0,2.0,88,0.00,,,0.02,0,WeatherCatV1.20B785,2013-11-27 06:15:00,
2013-11-27 01:19:00,34.4,31.2,29.64,West,272,0.0,1.0,88,0.00,,,0.02,0,WeatherCatV1.20B785,2013-11-27 06:19:00,
2013-11-27 01:20:00,34.4,31.2,29.64,West,272,0.0,1.0,88,0.00,,,0.02,0,WeatherCatV1.20B785,2013-11-27 06:20:00,
2013-11-27 01:24:00,34.6,31.4,29.64,SSW,193,0.0,0.0,88,0.00,,,0.02,0,WeatherCatV1.20B785,2013-11-27 06:24:00,
2013-11-27 01:25:00,34.6,31.4,29.64,SSW,193,0.0,0.0,88,0.00,,,0.02,0,WeatherCatV1.20B785,2013-11-27 06:25:00,
2013-11-27 01:26:00,34.6,31.4,29.65,SSW,193,1.0,1.0,88,0.00,,,0.02,0,WeatherCatV1.20B785,2013-11-27 06:26:00,
2013-11-27 01:29:00,34.7,31.5,29.64,WSW,246,0.0,0.0,88,0.00,,,0.02,0,WeatherCatV1.20B785,2013-11-27 06:29:00,
2013-11-27 01:30:00,34.7,31.5,29.64,WSW,246,0.0,0.0,88,0.00,,,0.02,0,WeatherCatV1.20B785,2013-11-27 06:30:00,
2013-11-27 01:31:00,34.7,31.5,29.64,WSW,246,0.0,0.0,88,0.00,,,0.02,0,WeatherCatV1.20B785,2013-11-27 06:31:00,
2013-11-27 01:32:00,34.7,31.5,29.64,WSW,251,1.0,2.0,88,0.00,,,0.02,0,WeatherCatV1.20B785,2013-11-27 06:32:00,
2013-11-27 01:33:00,34.7,31.5,29.64,West,260,1.0,2.0,88,0.00,,,0.02,0,WeatherCatV1.20B785,2013-11-27 06:33:00,
2013-11-27 01:34:00,34.8,31.6,29.63,West,260,0.0,2.0,88,0.00,,,0.02,0,WeatherCatV1.20B785,2013-11-27 06:34:00,
2013-11-27 01:36:00,34.8,31.6,29.63,West,260,0.0,1.0,88,0.00,,,0.02,0,WeatherCatV1.20B785,2013-11-27 06:36:00,
2013-11-27 01:37:00,34.8,31.6,29.63,West,260,0.0,0.0,88,0.00,,,0.02,0,WeatherCatV1.20B785,2013-11-27 06:37:00,
2013-11-27 01:38:00,34.8,31.6,29.63,West,260,0.0,0.0,88,0.00,,,0.02,0,WeatherCatV1.20B785,2013-11-27 06:38:00,
2013-11-27 01:39:00,34.8,31.6,29.63,West,260,0.0,1.0,88,0.00,,,0.02,0,WeatherCatV1.20B785,2013-11-27 06:39:00,
2013-11-27 01:41:00,34.8,31.6,29.63,West,259,0.0,1.0,88,0.00,,,0.02,0,WeatherCatV1.20B785,2013-11-27 06:41:00,
2013-11-27 01:42:00,34.8,31.6,29.63,West,259,0.0,1.0,88,0.00,,,0.02,0,WeatherCatV1.20B785,2013-11-27 06:42:00,
2013-11-27 01:43:00,34.8,31.6,29.63,West,259,0.0,0.0,88,0.00,,,0.02,0,WeatherCatV1.20B785,2013-11-27 06:43:00,
2013-11-27 01:44:00,34.9,31.7,29.63,West,259,0.0,0.0,88,0.00,,,0.02,0,WeatherCatV1.20B785,2013-11-27 06:44:00,
2013-11-27 01:46:00,34.9,31.7,29.63,West,259,0.0,0.0,88,0.00,,,0.02,0,WeatherCatV1.20B785,2013-11-27 06:46:00,
2013-11-27 01:47:00,34.9,31.7,29.63,West,259,0.0,0.0,88,0.00,,,0.02,0,WeatherCatV1.20B785,2013-11-27 06:47:00,
2013-11-27 01:48:00,34.9,31.7,29.63,West,259,0.0,0.0,88,0.00,,,0.02,0,WeatherCatV1.20B785,2013-11-27 06:48:00,
2013-11-27 01:49:00,34.9,31.7,29.63,West,259,0.0,0.0,88,0.00,,,0.02,0,WeatherCatV1.20B785,2013-11-27 06:49:00,
2013-11-27 01:50:00,34.9,31.7,29.64,West,259,0.0,0.0,88,0.00,,,0.02,0,WeatherCatV1.20B785,2013-11-27 06:50:00,
2013-11-27 01:52:00,34.9,31.7,29.64,West,259,1.0,1.0,88,0.00,,,0.02,0,WeatherCatV1.20B785,2013-11-27 06:52:00,
2013-11-27 01:53:00,35.0,31.8,29.64,West,259,1.0,2.0,88,0.00,,,0.02,0,WeatherCatV1.20B785,2013-11-27 06:53:00,
2013-11-27 01:54:00,35.0,31.8,29.64,West,259,0.0,2.0,88,0.00,,,0.02,0,WeatherCatV1.20B785,2013-11-27 06:54:00,
2013-11-27 01:55:00,35.0,31.8,29.64,West,259,0.0,1.0,88,0.00,,,0.02,0,WeatherCatV1.20B785,2013-11-27 06:55:00,
2013-11-27 01:57:00,35.0,31.8,29.64,West,259,0.0,1.0,88,0.00,,,0.02,0,WeatherCatV1.20B785,2013-11-27 06:57:00,
2013-11-27 01:58:00,35.0,31.8,29.64,West,259,0.0,1.0,88,0.00,,,0.02,0,WeatherCatV1.20B785,2013-11-27 06:58:00,
2013-11-27 01:59:00,35.0,31.8,29.64,West,259,0.0,1.0,88,0.00,,,0.02,0,WeatherCatV1.20B785,2013-11-27 06:59:00,
2013-11-27 02:00:00,35.0,31.8,29.64,WSW,258,2.0,2.0,88,0.00,,,0.02,0,WeatherCatV1.20B785,2013-11-27 07:00:00,
2013-11-27 02:01:00,35.1,31.9,29.64,West,259,1.0,2.0,88,0.00,,,0.02,0,WeatherCatV1.20B785,2013-11-27 07:01:00,
2013-11-27 02:02:00,35.1,31.9,29.64,WSW,256,1.0,3.0,88,0.00,,,0.02,0,WeatherCatV1.20B785,2013-11-27 07:02:00,
2013-11-27 02:03:00,35.1,31.9,29.64,WSW,256,1.0,3.0,88,0.00,,,0.02,0,WeatherCatV1.20B785,2013-11-27 07:03:00,
2013-11-27 02:04:00,35.1,31.9,29.64,WSW,258,1.0,2.0,88,0.00,,,0.02,0,WeatherCatV1.20B785,2013-11-27 07:04:00,
2013-11-27 02:05:00,35.1,31.9,29.63,WSW,257,1.0,2.0,88,0.00,,,0.02,0,WeatherCatV1.20B785,2013-11-27 07:05:00,
2013-11-27 02:06:00,35.1,31.9,29.63,West,260,3.0,3.0,88,0.00,,,0.02,0,WeatherCatV1.20B785,2013-11-27 07:06:00,
2013-11-27 02:08:00,35.1,31.9,29.63,West,271,0.0,3.0,88,0.00,,,0.02,0,WeatherCatV1.20B785,2013-11-27 07:08:00,
2013-11-27 02:09:00,35.1,31.9,29.63,West,271,0.0,2.0,88,0.00,,,0.02,0,WeatherCatV1.20B785,2013-11-27 07:09:00,
2013-11-27 02:10:00,35.1,31.9,29.62,West,271,0.0,0.0,88,0.00,,,0.02,0,WeatherCatV1.20B785,2013-11-27 07:10:00,
2013-11-27 02:11:00,35.2,32.0,29.62,West,271,0.0,0.0,88,0.00,,,0.02,0,WeatherCatV1.20B785,2013-11-27 07:11:00,
2013-11-27 02:13:00,35.1,31.9,29.62,West,271,0.0,0.0,88,0.00,,,0.02,0,WeatherCatV1.20B785,2013-11-27 07:13:00,
2013-11-27 02:14:00,35.1,31.9,29.62,West,271,0.0,0.0,88,0.00,,,0.02,0,WeatherCatV1.20B785,2013-11-27 07:14:00,
2013-11-27 02:15:00,35.1,31.9,29.62,West,271,0.0,0.0,88,0.00,,,0.02,0,WeatherCatV1.20B785,2013-11-27 07:15:00,
2013-11-27 02:16:00,35.1,31.9,29.62,West,271,0.0,1.0,88,0.00,,,0.02,0,WeatherCatV1.20B785,2013-11-27 07:16:00,
2013-11-27 02:17:00,35.1,31.9,29.62,West,271,0.0,0.0,88,0.00,,,0.02,0,WeatherCatV1.20B785,2013-11-27 07:17:00,
2013-11-27 02:18:00,35.1,31.9,29.62,West,271,0.0,0.0,88,0.00,,,0.02,0,WeatherCatV1.20B785,2013-11-27 07:18:00,
2013-11-27 02:20:00,35.2,32.0,29.62,West,271,1.0,1.0,88,0.00,,,0.02,0,WeatherCatV1.20B785,2013-11-27 07:20:00,
2013-11-27 02:21:00,35.2,32.0,29.62,West,271,1.0,1.0,88,0.00,,,0.03,0,WeatherCatV1.20B785,2013-11-27 07:21:00,
2013-11-27 02:23:00,35.2,32.0,29.62,West,271,0.0,2.0,88,0.00,,,0.03,0,WeatherCatV1.20B785,2013-11-27 07:23:00,
2013-11-27 02:25:00,35.2,32.0,29.62,West,271,0.0,0.0,88,0.00,,,0.03,0,WeatherCatV1.20B785,2013-11-27 07:25:00,
2013-11-27 02:26:00,35.2,32.0,29.62,West,271,0.0,0.0,88,0.00,,,0.03,0,WeatherCatV1.20B785,2013-11-27 07:26:00,
2013-11-27 02:27:00,35.2,32.0,29.62,West,271,0.0,0.0,88,0.00,,,0.03,0,WeatherCatV1.20B785,2013-11-27 07:27:00,
2013-11-27 02:28:00,35.2,32.0,29.61,West,271,0.0,0.0,88,0.00,,,0.03,0,WeatherCatV1.20B785,2013-11-27 07:28:00,
2013-11-27 02:31:00,35.2,32.0,29.61,West,271,0.0,0.0,88,0.00,,,0.03,0,WeatherCatV1.20B785,2013-11-27 07:31:00,
2013-11-27 02:32:00,35.2,32.0,29.61,West,271,0.0,0.0,88,0.00,,,0.03,0,WeatherCatV1.20B785,2013-11-27 07:32:00,
2013-11-27 02:33:00,35.2,32.0,29.61,West,271,0.0,0.0,88,0.00,,,0.03,0,WeatherCatV1.20B785,2013-11-27 07:33:00,
2013-11-27 02:34:00,35.2,32.0,29.61,West,271,0.0,0.0,88,0.00,,,0.03,0,WeatherCatV1.20B785,2013-11-27 07:34:00,
2013-11-27 02:36:00,35.2,32.0,29.61,West,271,0.0,0.0,88,0.00,,,0.03,0,WeatherCatV1.20B785,2013-11-27 07:36:00,
2013-11-27 02:37:00,35.2,32.0,29.61,West,271,0.0,0.0,88,0.00,,,0.03,0,WeatherCatV1.20B785,2013-11-27 07:37:00,
2013-11-27 02:38:00,35.2,32.0,29.61,West,271,0.0,0.0,88,0.00,,,0.03,0,WeatherCatV1.20B785,2013-11-27 07:38:00,
2013-11-27 02:39:00,35.2,32.0,29.60,West,271,0.0,0.0,88,0.00,,,0.03,0,WeatherCatV1.20B785,2013-11-27 07:39:00,
2013-11-27 02:41:00,35.2,32.0,29.61,West,271,0.0,0.0,88,0.00,,,0.03,0,WeatherCatV1.20B785,2013-11-27 07:41:00,
2013-11-27 02:42:00,35.2,32.0,29.61,West,271,0.0,0.0,88,0.00,,,0.03,0,WeatherCatV1.20B785,2013-11-27 07:42:00,
2013-11-27 02:43:00,35.2,32.0,29.61,West,271,0.0,0.0,88,0.00,,,0.03,0,WeatherCatV1.20B785,2013-11-27 07:43:00,
2013-11-27 02:44:00,35.2,32.0,29.61,West,271,0.0,0.0,88,0.00,,,0.03,0,WeatherCatV1.20B785,2013-11-27 07:44:00,
2013-11-27 02:46:00,35.2,32.0,29.61,West,271,0.0,0.0,88,0.00,,,0.03,0,WeatherCatV1.20B785,2013-11-27 07:46:00,
2013-11-27 02:47:00,35.2,32.0,29.61,West,271,0.0,0.0,88,0.00,,,0.03,0,WeatherCatV1.20B785,2013-11-27 07:47:00,
2013-11-27 02:49:00,35.2,32.0,29.61,West,271,0.0,1.0,88,0.00,,,0.03,0,WeatherCatV1.20B785,2013-11-27 07:49:00,
2013-11-27 02:50:00,35.2,32.0,29.61,West,271,0.0,1.0,88,0.00,,,0.03,0,WeatherCatV1.20B785,2013-11-27 07:50:00,
2013-11-27 02:51:00,35.3,32.1,29.61,West,271,0.0,0.0,88,0.00,,,0.03,0,WeatherCatV1.20B785,2013-11-27 07:51:00,
2013-11-27 02:52:00,35.3,32.1,29.61,West,271,0.0,0.0,88,0.00,,,0.03,0,WeatherCatV1.20B785,2013-11-27 07:52:00,
2013-11-27 02:53:00,35.3,32.1,29.61,West,271,0.0,0.0,88,0.00,,,0.03,0,WeatherCatV1.20B785,2013-11-27 07:53:00,
2013-11-27 02:54:00,35.3,32.1,29.61,West,271,0.0,0.0,88,0.00,,,0.03,0,WeatherCatV1.20B785,2013-11-27 07:54:00,
2013-11-27 02:55:00,35.3,32.1,29.61,West,271,0.0,0.0,88,0.00,,,0.03,0,WeatherCatV1.20B785,2013-11-27 07:55:00,
2013-11-27 02:56:00,35.3,32.1,29.62,West,271,0.0,0.0,88,0.00,,,0.03,0,WeatherCatV1.20B785,2013-11-27 07:56:00,
2013-11-27 02:57:00,35.4,32.2,29.62,West,271,0.0,1.0,88,0.00,,,0.03,0,WeatherCatV1.20B785,2013-11-27 07:57:00,
2013-11-27 02:58:00,35.3,32.1,29.62,West,271,0.0,1.0,88,0.00,,,0.03,0,WeatherCatV1.20B785,2013-11-27 07:58:00,
2013-11-27 03:00:00,35.4,32.2,29.62,West,271,1.0,1.0,88,0.00,,,0.03,0,WeatherCatV1.20B785,2013-11-27 08:00:00,
2013-11-27 03:01:00,35.4,32.2,29.62,West,269,1.0,2.0,88,0.00,,,0.03,0,WeatherCatV1.20B785,2013-11-27 08:01:00,
2013-11-27 03:02:00,35.4,32.2,29.62,West,269,1.0,2.0,88,0.00,,,0.03,0,WeatherCatV1.20B785,2013-11-27 08:02:00,
2013-11-27 03:03:00,35.4,32.2,29.62,West,269,0.0,2.0,88,0.00,,,0.03,0,WeatherCatV1.20B785,2013-11-27 08:03:00,
2013-11-27 03:04:00,35.4,32.2,29.62,West,264,0.0,2.0,88,0.00,,,0.03,0,WeatherCatV1.20B785,2013-11-27 08:04:00,
2013-11-27 03:05:00,35.4,32.2,29.61,West,264,1.0,2.0,88,0.00,,,0.03,0,WeatherCatV1.20B785,2013-11-27 08:05:00,
2013-11-27 03:06:00,35.4,32.2,29.61,West,264,0.0,1.0,88,0.00,,,0.03,0,WeatherCatV1.20B785,2013-11-27 08:06:00,
2013-11-27 03:08:00,35.4,32.2,29.62,West,264,1.0,1.0,88,0.00,,,0.03,0,WeatherCatV1.20B785,2013-11-27 08:08:00,
2013-11-27 03:10:00,35.4,32.2,29.62,West,264,0.0,2.0,88,0.00,,,0.03,0,WeatherCatV1.20B785,2013-11-27 08:10:00,
2013-11-27 03:11:00,35.4,32.2,29.62,West,264,0.0,0.0,88,0.00,,,0.03,0,WeatherCatV1.20B785,2013-11-27 08:11:00,
2013-11-27 03:13:00,35.4,32.2,29.62,West,264,0.0,0.0,88,0.00,,,0.03,0,WeatherCatV1.20B785,2013-11-27 08:13:00,
2013-11-27 03:15:00,35.4,32.2,29.62,West,264,0.0,0.0,88,0.00,,,0.03,0,WeatherCatV1.20B785,2013-11-27 08:15:00,
2013-11-27 03:17:00,35.5,32.3,29.62,West,264,0.0,0.0,88,0.00,,,0.03,0,WeatherCatV1.20B785,2013-11-27 08:17:00,
2013-11-27 03:18:00,35.5,32.3,29.62,West,264,0.0,0.0,88,0.00,,,0.03,0,WeatherCatV1.20B785,2013-11-27 08:18:00,
2013-11-27 03:19:00,35.5,32.3,29.62,North,1,0.0,1.0,88,0.00,,,0.03,0,WeatherCatV1.20B785,2013-11-27 08:19:00,
2013-11-27 03:21:00,35.5,32.3,29.62,North,1,0.0,1.0,88,0.00,,,0.03,0,WeatherCatV1.20B785,2013-11-27 08:21:00,
2013-11-27 03:22:00,35.5,32.3,29.62,North,1,0.0,1.0,88,0.00,,,0.03,0,WeatherCatV1.20B785,2013-11-27 08:22:00,
2013-11-27 03:23:00,35.5,32.3,29.62,North,354,0.0,1.0,88,0.00,,,0.03,0,WeatherCatV1.20B785,2013-11-27 08:23:00,
2013-11-27 03:25:00,35.5,32.3,29.61,North,353,0.0,1.0,88,0.00,,,0.03,0,WeatherCatV1.20B785,2013-11-27 08:25:00,
2013-11-27 03:26:00,35.5,32.3,29.61,North,353,0.0,0.0,88,0.00,,,0.03,0,WeatherCatV1.20B785,2013-11-27 08:26:00,
2013-11-27 03:27:00,35.5,32.3,29.61,North,353,0.0,0.0,88,0.00,,,0.03,0,WeatherCatV1.20B785,2013-11-27 08:27:00,
2013-11-27 03:28:00,35.5,32.3,29.61,North,353,0.0,0.0,88,0.00,,,0.03,0,WeatherCatV1.20B785,2013-11-27 08:28:00,
2013-11-27 03:29:00,35.5,32.3,29.61,North,353,0.0,0.0,88,0.00,,,0.03,0,WeatherCatV1.20B785,2013-11-27 08:29:00,
2013-11-27 03:31:00,35.6,32.4,29.60,North,353,0.0,0.0,88,0.00,,,0.03,0,WeatherCatV1.20B785,2013-11-27 08:31:00,
2013-11-27 03:32:00,35.6,32.4,29.60,North,353,0.0,1.0,88,0.00,,,0.03,0,WeatherCatV1.20B785,2013-11-27 08:32:00,
2013-11-27 03:33:00,35.5,32.3,29.60,North,353,0.0,1.0,88,0.00,,,0.03,0,WeatherCatV1.20B785,2013-11-27 08:33:00,
2013-11-27 03:34:00,35.5,32.3,29.60,North,353,0.0,0.0,88,0.00,,,0.03,0,WeatherCatV1.20B785,2013-11-27 08:34:00,
2013-11-27 03:36:00,35.6,32.4,29.60,North,353,0.0,0.0,88,0.00,,,0.03,0,WeatherCatV1.20B785,2013-11-27 08:36:00,
2013-11-27 03:37:00,35.6,32.4,29.59,NNE,17,1.0,1.0,88,0.00,,,0.03,0,WeatherCatV1.20B785,2013-11-27 08:37:00,
2013-11-27 03:39:00,35.6,32.4,29.59,NNE,17,0.0,1.0,88,0.00,,,0.03,0,WeatherCatV1.20B785,2013-11-27 08:39:00,
2013-11-27 03:40:00,35.6,32.4,29.59,NNE,17,0.0,1.0,88,0.00,,,0.03,0,WeatherCatV1.20B785,2013-11-27 08:40:00,
2013-11-27 03:41:00,35.7,32.5,29.59,NW,325,0.0,1.0,88,0.00,,,0.03,0,WeatherCatV1.20B785,2013-11-27 08:41:00,
2013-11-27 03:42:00,35.7,32.5,29.60,NW,325,0.0,1.0,88,0.00,,,0.03,0,WeatherCatV1.20B785,2013-11-27 08:42:00,
2013-11-27 03:44:00,35.7,32.5,29.60,NW,325,0.0,1.0,88,0.00,,,0.03,0,WeatherCatV1.20B785,2013-11-27 08:44:00,
2013-11-27 03:45:00,35.7,32.5,29.60,NW,324,1.0,2.0,88,0.00,,,0.03,0,WeatherCatV1.20B785,2013-11-27 08:45:00,
2013-11-27 03:46:00,35.7,32.5,29.60,NW,321,1.0,2.0,88,0.00,,,0.03,0,WeatherCatV1.20B785,2013-11-27 08:46:00,
2013-11-27 03:48:00,35.8,32.6,29.60,NW,321,1.0,2.0,88,0.00,,,0.03,0,WeatherCatV1.20B785,2013-11-27 08:48:00,
2013-11-27 03:49:00,35.8,32.6,29.60,NW,321,0.0,1.0,88,0.00,,,0.03,0,WeatherCatV1.20B785,2013-11-27 08:49:00,
2013-11-27 03:50:00,35.8,32.6,29.60,NW,321,0.0,1.0,88,0.00,,,0.03,0,WeatherCatV1.20B785,2013-11-27 08:50:00,
2013-11-27 03:51:00,35.8,32.6,29.60,NW,321,0.0,1.0,88,0.00,,,0.03,0,WeatherCatV1.20B785,2013-11-27 08:51:00,
2013-11-27 03:52:00,35.8,32.6,29.60,NW,321,1.0,2.0,88,0.00,,,0.03,0,WeatherCatV1.20B785,2013-11-27 08:52:00,
2013-11-27 03:53:00,35.9,32.7,29.60,NW,321,0.0,2.0,88,0.00,,,0.03,0,WeatherCatV1.20B785,2013-11-27 08:53:00,
2013-11-27 03:54:00,35.9,32.7,29.60,NW,319,0.0,1.0,88,0.00,,,0.03,0,WeatherCatV1.20B785,2013-11-27 08:54:00,
2013-11-27 03:55:00,35.9,32.7,29.60,NW,319,0.0,1.0,88,0.00,,,0.03,0,WeatherCatV1.20B785,2013-11-27 08:55:00,
2013-11-27 03:56:00,35.9,32.7,29.60,NW,319,0.0,0.0,88,0.00,,,0.03,0,WeatherCatV1.20B785,2013-11-27 08:56:00,
2013-11-27 03:58:00,36.0,32.8,29.59,NW,319,0.0,1.0,88,0.00,,,0.03,0,WeatherCatV1.20B785,2013-11-27 08:58:00,
2013-11-27 03:59:00,36.0,32.8,29.59,NW,319,0.0,1.0,88,0.00,,,0.03,0,WeatherCatV1.20B785,2013-11-27 08:59:00,
2013-11-27 04:00:00,36.0,32.8,29.60,NW,319,0.0,1.0,88,0.00,,,0.03,0,WeatherCatV1.20B785,2013-11-27 09:00:00,
2013-11-27 04:01:00,36.0,32.8,29.60,NW,319,0.0,1.0,88,0.00,,,0.03,0,WeatherCatV1.20B785,2013-11-27 09:01:00,
2013-11-27 04:04:00,36.1,32.9,29.60,West,264,0.0,3.0,88,0.00,,,0.03,0,WeatherCatV1.20B785,2013-11-27 09:04:00,
2013-11-27 04:05:00,36.1,32.9,29.60,West,264,0.0,0.0,88,0.00,,,0.03,0,WeatherCatV1.20B785,2013-11-27 09:05:00,
2013-11-27 04:06:00,36.1,32.9,29.60,West,264,0.0,0.0,88,0.00,,,0.03,0,WeatherCatV1.20B785,2013-11-27 09:06:00,
2013-11-27 04:07:00,36.1,32.9,29.60,WSW,247,1.0,1.0,88,0.00,,,0.03,0,WeatherCatV1.20B785,2013-11-27 09:07:00,
2013-11-27 04:09:00,36.2,33.0,29.60,WSW,251,1.0,1.0,88,0.00,,,0.03,0,WeatherCatV1.20B785,2013-11-27 09:09:00,
2013-11-27 04:10:00,36.2,33.0,29.60,West,262,0.0,2.0,88,0.00,,,0.03,0,WeatherCatV1.20B785,2013-11-27 09:10:00,
2013-11-27 04:11:00,36.2,33.0,29.60,West,262,0.0,2.0,88,0.00,,,0.03,0,WeatherCatV1.20B785,2013-11-27 09:11:00,
2013-11-27 04:12:00,36.2,33.0,29.60,West,262,0.0,1.0,88,0.00,,,0.03,0,WeatherCatV1.20B785,2013-11-27 09:12:00,
2013-11-27 04:14:00,36.2,33.0,29.61,West,262,0.0,0.0,88,0.00,,,0.03,0,WeatherCatV1.20B785,2013-11-27 09:14:00,
2013-11-27 04:16:00,36.3,33.1,29.61,West,259,0.0,1.0,88,0.00,,,0.03,0,WeatherCatV1.20B785,2013-11-27 09:16:00,
2013-11-27 04:17:00,36.3,33.1,29.61,West,259,0.0,1.0,88,0.00,,,0.03,0,WeatherCatV1.20B785,2013-11-27 09:17:00,
2013-11-27 04:20:00,36.4,33.2,29.61,WNW,296,1.0,2.0,88,0.00,,,0.03,0,WeatherCatV1.20B785,2013-11-27 09:20:00,
2013-11-27 04:21:00,36.4,33.2,29.61,NNW,329,2.0,3.0,88,0.00,,,0.03,0,WeatherCatV1.20B785,2013-11-27 09:21:00,
2013-11-27 04:22:00,36.4,33.2,29.61,West,279,2.0,6.0,88,0.00,,,0.03,0,WeatherCatV1.20B785,2013-11-27 09:22:00,
2013-11-27 04:25:00,36.5,33.3,29.61,WSW,245,0.0,1.0,88,0.00,,,0.03,0,WeatherCatV1.20B785,2013-11-27 09:25:00,
2013-11-27 04:28:00,36.7,33.5,29.61,WSW,244,0.0,1.0,88,0.00,,,0.03,0,WeatherCatV1.20B785,2013-11-27 09:28:00,
2013-11-27 04:30:00,36.8,33.6,29.62,WNW,292,2.0,3.0,88,0.00,,,0.03,0,WeatherCatV1.20B785,2013-11-27 09:30:00,
2013-11-27 04:33:00,36.8,33.6,29.62,SW,231,8.0,11.0,88,0.00,,,0.03,0,WeatherCatV1.20B785,2013-11-27 09:33:00,
2013-11-27 04:34:00,36.8,33.6,29.62,WNW,302,5.0,11.0,88,0.00,,,0.03,0,WeatherCatV1.20B785,2013-11-27 09:34:00,
2013-11-27 04:35:00,37.0,33.8,29.62,WNW,299,2.0,4.0,88,0.00,,,0.03,0,WeatherCatV1.20B785,2013-11-27 09:35:00,
2013-11-27 04:36:00,37.0,33.8,29.62,NW,310,5.0,5.0,88,0.00,,,0.03,0,WeatherCatV1.20B785,2013-11-27 09:36:00,
2013-11-27 04:38:00,37.2,34.0,29.62,WSW,256,3.0,7.0,88,0.00,,,0.03,0,WeatherCatV1.20B785,2013-11-27 09:38:00,
2013-11-27 04:39:00,37.4,34.2,29.63,WNW,297,3.0,6.0,88,0.00,,,0.03,0,WeatherCatV1.20B785,2013-11-27 09:39:00,
2013-11-27 04:40:00,37.4,34.2,29.63,West,266,2.0,6.0,88,0.00,,,0.03,0,WeatherCatV1.20B785,2013-11-27 09:40:00,
2013-11-27 04:41:00,37.5,34.3,29.63,West,266,2.0,6.0,88,0.00,,,0.03,0,WeatherCatV1.20B785,2013-11-27 09:41:00,
2013-11-27 04:42:00,37.5,34.3,29.63,West,266,0.0,2.0,88,0.00,,,0.03,0,WeatherCatV1.20B785,2013-11-27 09:42:00,
2013-11-27 04:43:00,37.5,34.3,29.63,WNW,285,2.0,2.0,88,0.00,,,0.03,0,WeatherCatV1.20B785,2013-11-27 09:43:00,
2013-11-27 04:44:00,37.6,34.4,29.63,WSW,254,2.0,3.0,88,0.00,,,0.03,0,WeatherCatV1.20B785,2013-11-27 09:44:00,
2013-11-27 04:45:00,37.6,34.4,29.64,WNW,287,3.0,4.0,88,0.00,,,0.03,0,WeatherCatV1.20B785,2013-11-27 09:45:00,
2013-11-27 04:46:00,37.7,34.5,29.64,WNW,287,1.0,4.0,88,0.00,,,0.03,0,WeatherCatV1.20B785,2013-11-27 09:46:00,
2013-11-27 04:47:00,37.7,34.8,29.64,NW,314,3.0,4.0,89,0.00,,,0.03,0,WeatherCatV1.20B785,2013-11-27 09:47:00,
2013-11-27 04:48:00,37.7,34.8,29.64,WSW,254,3.0,6.0,89,0.00,,,0.03,0,WeatherCatV1.20B785,2013-11-27 09:48:00,
2013-11-27 04:49:00,37.7,34.8,29.64,WSW,257,4.0,6.0,89,0.00,,,0.03,0,WeatherCatV1.20B785,2013-11-27 09:49:00,
2013-11-27 04:50:00,37.7,34.8,29.64,West,274,4.0,4.0,89,0.00,,,0.03,0,WeatherCatV1.20B785,2013-11-27 09:50:00,
2013-11-27 04:51:00,37.7,34.8,29.63,NW,304,1.0,4.0,89,0.00,,,0.03,0,WeatherCatV1.20B785,2013-11-27 09:51:00,
2013-11-27 04:52:00,37.7,35.0,29.63,NW,304,0.0,2.0,90,0.00,,,0.03,0,WeatherCatV1.20B785,2013-11-27 09:52:00,
2013-11-27 04:53:00,37.7,35.0,29.64,NW,304,2.0,2.0,90,0.00,,,0.03,0,WeatherCatV1.20B785,2013-11-27 09:53:00,
2013-11-27 04:54:00,37.7,35.0,29.64,West,262,2.0,4.0,90,0.00,,,0.03,0,WeatherCatV1.20B785,2013-11-27 09:54:00,
2013-11-27 04:56:00,37.7,35.0,29.64,West,273,1.0,2.0,90,0.00,,,0.03,0,WeatherCatV1.20B785,2013-11-27 09:56:00,
2013-11-27 04:57:00,37.7,35.0,29.64,WNW,287,0.0,2.0,90,0.00,,,0.03,0,WeatherCatV1.20B785,2013-11-27 09:57:00,
2013-11-27 04:58:00,37.7,35.0,29.63,WNW,287,0.0,0.0,90,0.00,,,0.03,0,WeatherCatV1.20B785,2013-11-27 09:58:00,
2013-11-27 04:59:00,37.7,35.0,29.63,WNW,287,0.0,1.0,90,0.00,,,0.03,0,WeatherCatV1.20B785,2013-11-27 09:59:00,
2013-11-27 05:02:00,37.7,35.0,29.63,WNW,293,0.0,2.0,90,0.00,,,0.03,0,WeatherCatV1.20B785,2013-11-27 10:02:00,
2013-11-27 05:03:00,37.7,35.0,29.63,WNW,293,0.0,1.0,90,0.00,,,0.04,0,WeatherCatV1.20B785,2013-11-27 10:03:00,
2013-11-27 05:04:00,37.7,35.0,29.62,WNW,299,1.0,2.0,90,0.00,,,0.04,0,WeatherCatV1.20B785,2013-11-27 10:04:00,
2013-11-27 05:07:00,37.7,35.0,29.62,WNW,299,0.0,0.0,90,0.00,,,0.04,0,WeatherCatV1.20B785,2013-11-27 10:07:00,
2013-11-27 05:08:00,37.7,35.0,29.62,WNW,299,0.0,1.0,90,0.00,,,0.04,0,WeatherCatV1.20B785,2013-11-27 10:08:00,
2013-11-27 05:09:00,37.7,35.0,29.62,WNW,299,0.0,1.0,90,0.00,,,0.04,0,WeatherCatV1.20B785,2013-11-27 10:09:00,
2013-11-27 05:10:00,37.6,34.9,29.62,WNW,299,0.0,1.0,90,0.00,,,0.04,0,WeatherCatV1.20B785,2013-11-27 10:10:00,
2013-11-27 05:12:00,37.6,34.9,29.62,NW,313,3.0,5.0,90,0.00,,,0.04,0,WeatherCatV1.20B785,2013-11-27 10:12:00,
2013-11-27 05:13:00,37.5,34.8,29.62,NNW,329,5.0,6.0,90,0.00,,,0.04,0,WeatherCatV1.20B785,2013-11-27 10:13:00,
2013-11-27 05:14:00,37.5,35.1,29.61,NW,311,4.0,6.0,91,0.00,,,0.04,0,WeatherCatV1.20B785,2013-11-27 10:14:00,
2013-11-27 05:15:00,37.5,35.1,29.62,NW,308,2.0,6.0,91,0.00,,,0.04,0,WeatherCatV1.20B785,2013-11-27 10:15:00,
2013-11-27 05:17:00,37.5,35.1,29.61,NW,308,0.0,2.0,91,0.00,,,0.04,0,WeatherCatV1.20B785,2013-11-27 10:17:00,
2013-11-27 05:18:00,37.5,35.1,29.62,WSW,258,3.0,4.0,91,0.00,,,0.04,0,WeatherCatV1.20B785,2013-11-27 10:18:00,
2013-11-27 05:19:00,37.5,35.1,29.62,WSW,258,2.0,4.0,91,0.00,,,0.04,0,WeatherCatV1.20B785,2013-11-27 10:19:00,
2013-11-27 05:20:00,37.5,35.1,29.62,WNW,287,2.0,3.0,91,0.00,,,0.04,0,WeatherCatV1.20B785,2013-11-27 10:20:00,
2013-11-27 05:22:00,37.5,35.1,29.62,West,273,5.0,5.0,91,0.00,,,0.04,0,WeatherCatV1.20B785,2013-11-27 10:22:00,
2013-11-27 05:23:00,37.5,35.1,29.61,WNW,292,3.0,4.0,91,0.00,,,0.04,0,WeatherCatV1.20B785,2013-11-27 10:23:00,
2013-11-27 05:24:00,37.4,35.0,29.62,NNW,338,1.0,5.0,91,0.00,,,0.04,0,WeatherCatV1.20B785,2013-11-27 10:24:00,
2013-11-27 05:25:00,37.5,35.1,29.62,NW,314,3.0,5.0,91,0.00,,,0.04,0,WeatherCatV1.20B785,2013-11-27 10:25:00,
2013-11-27 05:26:00,37.5,35.1,29.62,NW,317,0.0,5.0,91,0.00,,,0.04,0,WeatherCatV1.20B785,2013-11-27 10:26:00,
2013-11-27 05:27:00,37.5,34.8,29.62,NW,317,1.0,5.0,90,0.00,,,0.04,0,WeatherCatV1.20B785,2013-11-27 10:27:00,
2013-11-27 05:28:00,37.5,35.1,29.62,West,277,2.0,4.0,91,0.00,,,0.05,0,WeatherCatV1.20B785,2013-11-27 10:28:00,
2013-11-27 05:31:00,37.5,35.1,29.63,WNW,294,1.0,4.0,91,0.00,,,0.05,0,WeatherCatV1.20B785,2013-11-27 10:31:00,
2013-11-27 05:32:00,37.5,35.1,29.63,WSW,249,2.0,4.0,91,0.00,,,0.05,0,WeatherCatV1.20B785,2013-11-27 10:32:00,
2013-11-27 05:35:00,37.4,35.0,29.63,West,275,0.0,3.0,91,0.00,,,0.05,0,WeatherCatV1.20B785,2013-11-27 10:35:00,
2013-11-27 05:36:00,37.4,35.0,29.63,WNW,296,2.0,2.0,91,0.00,,,0.05,0,WeatherCatV1.20B785,2013-11-27 10:36:00,
2013-11-27 05:37:00,37.4,34.7,29.63,WNW,296,0.0,2.0,90,0.00,,,0.05,0,WeatherCatV1.20B785,2013-11-27 10:37:00,
2013-11-27 05:38:00,37.4,34.7,29.63,WNW,296,0.0,2.0,90,0.00,,,0.05,0,WeatherCatV1.20B785,2013-11-27 10:38:00,
2013-11-27 05:41:00,37.3,34.6,29.64,WNW,289,2.0,3.0,90,0.00,,,0.05,0,WeatherCatV1.20B785,2013-11-27 10:41:00,
2013-11-27 05:42:00,37.3,34.6,29.63,WNW,296,1.0,3.0,90,0.00,,,0.05,0,WeatherCatV1.20B785,2013-11-27 10:42:00,
2013-11-27 05:43:00,37.3,34.6,29.63,NE,44,4.0,4.0,90,0.00,,,0.05,0,WeatherCatV1.20B785,2013-11-27 10:43:00,
2013-11-27 05:46:00,37.3,34.6,29.63,West,280,2.0,2.0,90,0.00,,,0.05,0,WeatherCatV1.20B785,2013-11-27 10:46:00,
2013-11-27 05:47:00,37.3,34.6,29.63,West,268,3.0,3.0,90,0.00,,,0.05,0,WeatherCatV1.20B785,2013-11-27 10:47:00,
2013-11-27 05:48:00,37.3,34.6,29.63,WSW,252,1.0,3.0,90,0.00,,,0.05,0,WeatherCatV1.20B785,2013-11-27 10:48:00,
2013-11-27 05:49:00,37.3,34.6,29.63,West,262,1.0,2.0,90,0.00,,,0.05,0,WeatherCatV1.20B785,2013-11-27 10:49:00,
2013-11-27 05:52:00,37.3,34.6,29.62,WNW,299,1.0,1.0,90,0.00,,,0.05,0,WeatherCatV1.20B785,2013-11-27 10:52:00,
2013-11-27 05:53:00,37.2,34.5,29.62,West,266,3.0,3.0,90,0.00,,,0.05,0,WeatherCatV1.20B785,2013-11-27 10:53:00,
2013-11-27 05:54:00,37.2,34.5,29.62,NNW,347,3.0,3.0,90,0.00,,,0.05,0,WeatherCatV1.20B785,2013-11-27 10:54:00,
2013-11-27 05:57:00,37.2,34.5,29.62,WSW,248,2.0,2.0,90,0.00,,,0.05,0,WeatherCatV1.20B785,2013-11-27 10:57:00,
2013-11-27 05:58:00,37.2,34.5,29.62,SSW,206,2.0,2.0,90,0.00,,,0.05,0,WeatherCatV1.20B785,2013-11-27 10:58:00,
2013-11-27 05:59:00,37.2,34.5,29.63,SW,223,1.0,2.0,90,0.00,,,0.05,0,WeatherCatV1.20B785,2013-11-27 10:59:00,
2013-11-27 06:00:00,37.2,34.5,29.63,WSW,258,2.0,2.0,90,0.00,,,0.05,0,WeatherCatV1.20B785,2013-11-27 11:00:00,
2013-11-27 06:02:00,37.2,34.5,29.64,WSW,247,1.0,3.0,90,0.00,,,0.05,0,WeatherCatV1.20B785,2013-11-27 11:02:00,
2013-11-27 06:03:00,37.1,34.4,29.64,West,261,4.0,4.0,90,0.00,,,0.05,0,WeatherCatV1.20B785,2013-11-27 11:03:00,
2013-11-27 06:04:00,37.2,34.5,29.63,WSW,238,1.0,4.0,90,0.00,,,0.05,0,WeatherCatV1.20B785,2013-11-27 11:04:00,
2013-11-27 06:05:00,37.1,34.4,29.63,West,280,4.0,5.0,90,0.00,,,0.05,0,WeatherCatV1.20B785,2013-11-27 11:05:00,
2013-11-27 06:07:00,37.1,34.4,29.62,WSW,248,8.0,8.0,90,0.00,,,0.05,0,WeatherCatV1.20B785,2013-11-27 11:07:00,
2013-11-27 06:08:00,37.1,34.4,29.62,WSW,254,5.0,8.0,90,0.00,,,0.05,0,WeatherCatV1.20B785,2013-11-27 11:08:00,
2013-11-27 06:09:00,37.1,34.4,29.61,SW,227,3.0,8.0,90,0.00,,,0.05,0,WeatherCatV1.20B785,2013-11-27 11:09:00,
2013-11-27 06:10:00,37.1,34.4,29.62,West,278,4.0,5.0,90,0.00,,,0.05,0,WeatherCatV1.20B785,2013-11-27 11:10:00,
2013-11-27 06:12:00,37.2,34.5,29.61,WNW,300,3.0,4.0,90,0.00,,,0.05,0,WeatherCatV1.20B785,2013-11-27 11:12:00,
2013-11-27 06:13:00,37.2,34.5,29.61,WNW,299,1.0,3.0,90,0.00,,,0.05,0,WeatherCatV1.20B785,2013-11-27 11:13:00,
2013-11-27 06:14:00,37.2,34.5,29.61,West,278,5.0,5.0,90,0.00,,,0.05,0,WeatherCatV1.20B785,2013-11-27 11:14:00,
2013-11-27 06:15:00,37.2,34.5,29.61,SW,226,6.0,8.0,90,0.00,,,0.05,0,WeatherCatV1.20B785,2013-11-27 11:15:00,
2013-11-27 06:18:00,37.2,34.5,29.62,WSW,239,3.0,3.0,90,0.00,,,0.05,0,WeatherCatV1.20B785,2013-11-27 11:18:00,
2013-11-27 06:19:00,37.1,34.4,29.63,WSW,250,2.0,4.0,90,0.00,,,0.05,0,WeatherCatV1.20B785,2013-11-27 11:19:00,
2013-11-27 06:20:00,37.1,34.4,29.64,West,266,6.0,7.0,90,0.00,,,0.05,0,WeatherCatV1.20B785,2013-11-27 11:20:00,
2013-11-27 06:21:00,37.1,34.4,29.64,WSW,252,3.0,10.0,90,0.00,,,0.05,0,WeatherCatV1.20B785,2013-11-27 11:21:00,
2013-11-27 06:23:00,37.2,34.5,29.65,WNW,289,6.0,8.0,90,0.00,,,0.05,0,WeatherCatV1.20B785,2013-11-27 11:23:00,
2013-11-27 06:24:00,37.2,34.5,29.65,NW,325,6.0,8.0,90,0.00,,,0.05,0,WeatherCatV1.20B785,2013-11-27 11:24:00,
2013-11-27 06:26:00,37.2,34.3,29.65,SW,235,1.0,6.0,89,0.00,,,0.05,0,WeatherCatV1.20B785,2013-11-27 11:26:00,
2013-11-27 06:29:00,37.2,34.5,29.63,WNW,291,2.0,3.0,90,0.00,,,0.05,0,WeatherCatV1.20B785,2013-11-27 11:29:00,
2013-11-27 06:30:00,37.2,34.5,29.63,WNW,293,1.0,2.0,90,0.00,,,0.05,0,WeatherCatV1.20B785,2013-11-27 11:30:00,
2013-11-27 06:31:00,37.1,34.4,29.64,North,352,4.0,8.0,90,0.00,,,0.05,0,WeatherCatV1.20B785,2013-11-27 11:31:00,
2013-11-27 06:32:00,37.1,34.2,29.64,West,281,7.0,9.0,89,0.00,,,0.05,0,WeatherCatV1.20B785,2013-11-27 11:32:00,
2013-11-27 06:34:00,37.2,34.3,29.64,NNW,348,2.0,2.0,89,0.00,,,0.05,0,WeatherCatV1.20B785,2013-11-27 11:34:00,
2013-11-27 06:35:00,37.3,34.4,29.64,West,277,5.0,8.0,89,0.00,,,0.05,0,WeatherCatV1.20B785,2013-11-27 11:35:00,
2013-11-27 06:36:00,37.3,34.4,29.65,North,7,2.0,6.0,89,0.00,,,0.05,0,WeatherCatV1.20B785,2013-11-27 11:36:00,
2013-11-27 06:37:00,37.3,34.4,29.65,North,7,2.0,6.0,89,0.00,,,0.05,0,WeatherCatV1.20B785,2013-11-27 11:37:00,
2013-11-27 06:39:00,37.3,34.4,29.65,NW,314,2.0,4.0,89,0.00,,,0.05,0,WeatherCatV1.20B785,2013-11-27 11:39:00,
2013-11-27 06:40:00,37.3,34.4,29.64,WNW,293,9.0,11.0,89,0.00,,,0.05,0,WeatherCatV1.20B785,2013-11-27 11:40:00,
2013-11-27 06:42:00,37.3,34.4,29.63,West,266,5.0,11.0,89,0.00,,,0.05,0,WeatherCatV1.20B785,2013-11-27 11:42:00,
2013-11-27 06:44:00,37.3,34.1,29.63,West,277,5.0,9.0,88,0.00,,,0.05,0,WeatherCatV1.20B785,2013-11-27 11:44:00,
2013-11-27 06:45:00,37.3,34.1,29.63,NW,310,5.0,7.0,88,0.00,,,0.05,0,WeatherCatV1.20B785,2013-11-27 11:45:00,
2013-11-27 06:47:00,37.3,34.1,29.63,NW,310,2.0,5.0,88,0.00,,,0.05,0,WeatherCatV1.20B785,2013-11-27 11:47:00,
2013-11-27 06:49:00,37.3,34.1,29.63,WSW,246,4.0,4.0,88,0.00,,,0.05,0,WeatherCatV1.20B785,2013-11-27 11:49:00,
2013-11-27 06:50:00,37.3,34.1,29.63,West,281,4.0,6.0,88,0.00,,,0.05,0,WeatherCatV1.20B785,2013-11-27 11:50:00,
2013-11-27 06:51:00,37.3,34.1,29.63,WNW,302,4.0,6.0,88,0.00,,,0.05,0,WeatherCatV1.20B785,2013-11-27 11:51:00,
2013-11-27 06:52:00,37.3,34.1,29.64,West,270,8.0,10.0,88,0.00,,,0.05,0,WeatherCatV1.20B785,2013-11-27 11:52:00,
2013-11-27 06:53:00,37.3,34.1,29.63,WNW,293,5.0,10.0,88,0.00,,,0.05,0,WeatherCatV1.20B785,2013-11-27 11:53:00,
2013-11-27 06:54:00,37.3,34.1,29.63,West,276,2.0,5.0,88,0.00,,,0.05,0,WeatherCatV1.20B785,2013-11-27 11:54:00,
2013-11-27 06:56:00,37.3,34.1,29.63,West,278,2.0,2.0,88,0.00,,,0.05,0,WeatherCatV1.20B785,2013-11-27 11:56:00,
2013-11-27 06:58:00,37.3,34.1,29.63,WNW,299,1.0,6.0,88,0.00,,,0.05,0,WeatherCatV1.20B785,2013-11-27 11:58:00,
2013-11-27 06:59:00,37.2,34.3,29.63,WNW,285,3.0,5.0,89,0.00,,,0.05,0,WeatherCatV1.20B785,2013-11-27 11:59:00,
2013-11-27 07:00:00,37.2,34.0,29.64,West,269,2.0,5.0,88,0.00,,,0.05,0,WeatherCatV1.20B785,2013-11-27 12:00:00,
2013-11-27 07:01:00,37.2,34.0,29.64,WSW,248,4.0,4.0,88,0.00,,,0.05,0,WeatherCatV1.20B785,2013-11-27 12:01:00,
2013-11-27 07:04:00,37.1,33.9,29.64,ENE,74,3.0,6.0,88,0.00,,,0.05,0,WeatherCatV1.20B785,2013-11-27 12:04:00,
2013-11-27 07:05:00,37.1,33.9,29.64,West,276,1.0,6.0,88,0.00,,,0.05,0,WeatherCatV1.20B785,2013-11-27 12:05:00,
2013-11-27 07:06:00,37.1,34.2,29.65,NW,321,7.0,8.0,89,0.00,,,0.05,0,WeatherCatV1.20B785,2013-11-27 12:06:00,
2013-11-27 07:07:00,37.1,34.2,29.65,NNW,347,4.0,8.0,89,0.00,,,0.05,0,WeatherCatV1.20B785,2013-11-27 12:07:00,
2013-11-27 07:09:00,37.2,33.7,29.65,NW,318,1.0,7.0,87,0.00,,,0.05,0,WeatherCatV1.20B785,2013-11-27 12:09:00,
2013-11-27 07:10:00,37.2,34.0,29.66,NW,318,1.0,1.0,88,0.00,,,0.05,0,WeatherCatV1.20B785,2013-11-27 12:10:00,
2013-11-27 07:11:00,37.2,34.3,29.66,NW,316,2.0,2.0,89,0.00,,,0.05,0,WeatherCatV1.20B785,2013-11-27 12:11:00,
2013-11-27 07:12:00,37.1,34.2,29.66,NW,316,0.0,2.0,89,0.00,,,0.05,0,WeatherCatV1.20B785,2013-11-27 12:12:00,
2013-11-27 07:15:00,37.1,34.2,29.66,WNW,293,2.0,2.0,89,0.00,,,0.05,0,WeatherCatV1.20B785,2013-11-27 12:15:00,
2013-11-27 07:16:00,37.1,34.2,29.66,West,273,1.0,3.0,89,0.00,,,0.05,0,WeatherCatV1.20B785,2013-11-27 12:16:00,
2013-11-27 07:17:00,37.1,33.9,29.66,WSW,249,0.0,3.0,88,0.00,,,0.05,0,WeatherCatV1.20B785,2013-11-27 12:17:00,
2013-11-27 07:21:00,37.1,33.6,29.66,West,260,2.0,4.0,87,0.00,,,0.05,0,WeatherCatV1.20B785,2013-11-27 12:21:00,
2013-11-27 07:22:00,37.1,33.6,29.66,South,184,3.0,5.0,87,0.00,,,0.05,0,WeatherCatV1.20B785,2013-11-27 12:22:00,
2013-11-27 07:26:00,37.2,34.0,29.67,WNW,296,0.0,5.0,88,0.00,,,0.05,0,WeatherCatV1.20B785,2013-11-27 12:26:00,
2013-11-27 07:27:00,37.2,34.0,29.67,WNW,296,0.0,5.0,88,0.00,,,0.05,0,WeatherCatV1.20B785,2013-11-27 12:27:00,
2013-11-27 07:28:00,37.2,34.0,29.66,WSW,255,3.0,5.0,88,0.00,,,0.05,0,WeatherCatV1.20B785,2013-11-27 12:28:00,
2013-11-27 07:31:00,37.2,33.4,29.65,WNW,298,2.0,7.0,86,0.00,,,0.05,0,WeatherCatV1.20B785,2013-11-27 12:31:00,
2013-11-27 07:32:00,37.2,33.4,29.65,West,259,1.0,7.0,86,0.00,,,0.05,0,WeatherCatV1.20B785,2013-11-27 12:32:00,
2013-11-27 07:33:00,37.2,33.7,29.66,West,260,2.0,2.0,87,0.00,,,0.05,0,WeatherCatV1.20B785,2013-11-27 12:33:00,
2013-11-27 07:36:00,37.2,33.7,29.66,NNW,347,0.0,1.0,87,0.00,,,0.05,0,WeatherCatV1.20B785,2013-11-27 12:36:00,
2013-11-27 07:37:00,37.2,33.7,29.66,WNW,302,2.0,3.0,87,0.00,,,0.05,0,WeatherCatV1.20B785,2013-11-27 12:37:00,
2013-11-27 07:38:00,37.2,33.7,29.66,West,270,0.0,3.0,87,0.00,,,0.05,0,WeatherCatV1.20B785,2013-11-27 12:38:00,
2013-11-27 07:41:00,37.2,33.7,29.66,West,264,4.0,5.0,87,0.00,,,0.05,0,WeatherCatV1.20B785,2013-11-27 12:41:00,
2013-11-27 07:42:00,37.1,33.3,29.66,West,266,3.0,5.0,86,0.00,,,0.05,0,WeatherCatV1.20B785,2013-11-27 12:42:00,
2013-11-27 07:43:00,37.1,33.6,29.66,WNW,282,3.0,5.0,87,0.00,,,0.05,0,WeatherCatV1.20B785,2013-11-27 12:43:00,
2013-11-27 07:44:00,37.1,33.6,29.66,West,280,5.0,5.0,87,0.00,,,0.05,0,WeatherCatV1.20B785,2013-11-27 12:44:00,
2013-11-27 07:46:00,37.1,33.3,29.66,West,267,2.0,3.0,86,0.00,,,0.05,0,WeatherCatV1.20B785,2013-11-27 12:46:00,
2013-11-27 07:47:00,37.1,33.3,29.66,WNW,297,2.0,3.0,86,0.00,,,0.05,0,WeatherCatV1.20B785,2013-11-27 12:47:00,
2013-11-27 07:48:00,37.1,33.6,29.66,WNW,285,4.0,5.0,87,0.00,,,0.05,0,WeatherCatV1.20B785,2013-11-27 12:48:00,
2013-11-27 07:49:00,37.1,33.6,29.66,WNW,302,4.0,5.0,87,0.00,,,0.05,0,WeatherCatV1.20B785,2013-11-27 12:49:00,
2013-11-27 07:51:00,37.1,33.6,29.66,WSW,238,1.0,4.0,87,0.00,,,0.05,0,WeatherCatV1.20B785,2013-11-27 12:51:00,
2013-11-27 07:52:00,37.0,33.5,29.66,WNW,293,1.0,4.0,87,0.00,,,0.05,0,WeatherCatV1.20B785,2013-11-27 12:52:00,
2013-11-27 07:53:00,37.0,33.5,29.66,WNW,298,2.0,5.0,87,0.00,,,0.05,5,WeatherCatV1.20B785,2013-11-27 12:53:00,
2013-11-27 07:54:00,37.0,33.5,29.66,West,266,2.0,5.0,87,0.00,,,0.05,5,WeatherCatV1.20B785,2013-11-27 12:54:00,
2013-11-27 07:55:00,37.0,33.5,29.66,West,271,2.0,5.0,87,0.00,,,0.05,5,WeatherCatV1.20B785,2013-11-27 12:55:00,
2013-11-27 07:57:00,37.0,33.2,29.67,WNW,287,4.0,7.0,86,0.00,,,0.05,5,WeatherCatV1.20B785,2013-11-27 12:57:00,
2013-11-27 07:58:00,37.0,33.2,29.67,WSW,254,4.0,6.0,86,0.00,,,0.05,5,WeatherCatV1.20B785,2013-11-27 12:58:00,
2013-11-27 07:59:00,37.0,33.5,29.67,NW,304,4.0,6.0,87,0.00,,,0.05,5,WeatherCatV1.20B785,2013-11-27 12:59:00,
2013-11-27 08:00:00,37.0,33.5,29.67,West,270,11.0,11.0,87,0.00,,,0.05,7,WeatherCatV1.20B785,2013-11-27 13:00:00,
2013-11-27 08:03:00,37.1,33.3,29.67,NW,313,9.0,11.0,86,0.00,,,0.05,9,WeatherCatV1.20B785,2013-11-27 13:03:00,
2013-11-27 08:04:00,37.1,33.0,29.67,West,269,4.0,12.0,85,0.00,,,0.05,9,WeatherCatV1.20B785,2013-11-27 13:04:00,
2013-11-27 08:05:00,37.2,33.4,29.68,West,274,8.0,8.0,86,0.00,,,0.05,9,WeatherCatV1.20B785,2013-11-27 13:05:00,
2013-11-27 08:08:00,37.2,33.1,29.69,WNW,287,3.0,5.0,85,0.00,,,0.05,7,WeatherCatV1.20B785,2013-11-27 13:08:00,
2013-11-27 08:10:00,37.3,33.2,29.68,WNW,291,4.0,9.0,85,0.00,,,0.05,14,WeatherCatV1.20B785,2013-11-27 13:10:00,
2013-11-27 08:11:00,37.3,33.2,29.67,West,275,2.0,5.0,85,0.00,,,0.05,18,WeatherCatV1.20B785,2013-11-27 13:11:00,
2013-11-27 08:13:00,37.3,33.2,29.68,WNW,287,3.0,5.0,85,0.00,,,0.05,16,WeatherCatV1.20B785,2013-11-27 13:13:00,
2013-11-27 08:14:00,37.3,33.2,29.68,WNW,285,1.0,5.0,85,0.00,,,0.05,18,WeatherCatV1.20B785,2013-11-27 13:14:00,
2013-11-27 08:16:00,37.3,33.2,29.67,WNW,296,6.0,9.0,85,0.00,,,0.05,21,WeatherCatV1.20B785,2013-11-27 13:16:00,
2013-11-27 08:17:00,37.3,33.2,29.67,West,281,2.0,10.0,85,0.00,,,0.05,25,WeatherCatV1.20B785,2013-11-27 13:17:00,
2013-11-27 08:19:00,37.3,32.9,29.67,WNW,299,2.0,5.0,84,0.00,,,0.05,30,WeatherCatV1.20B785,2013-11-27 13:19:00,
2013-11-27 08:20:00,37.4,33.3,29.67,West,260,1.0,4.0,85,0.00,,,0.05,28,WeatherCatV1.20B785,2013-11-27 13:20:00,
2013-11-27 08:21:00,37.4,33.3,29.67,West,263,2.0,6.0,85,0.00,,,0.05,32,WeatherCatV1.20B785,2013-11-27 13:21:00,
2013-11-27 08:22:00,37.4,33.3,29.67,West,264,6.0,9.0,85,0.00,,,0.05,28,WeatherCatV1.20B785,2013-11-27 13:22:00,
2013-11-27 08:24:00,37.4,33.0,29.66,West,261,2.0,4.0,84,0.00,,,0.05,23,WeatherCatV1.20B785,2013-11-27 13:24:00,
2013-11-27 08:25:00,37.4,33.3,29.66,WNW,297,0.0,3.0,85,0.00,,,0.05,25,WeatherCatV1.20B785,2013-11-27 13:25:00,
2013-11-27 08:26:00,37.4,33.3,29.66,WNW,293,4.0,5.0,85,0.00,,,0.05,28,WeatherCatV1.20B785,2013-11-27 13:26:00,
2013-11-27 08:27:00,37.4,33.3,29.66,WNW,293,0.0,5.0,85,0.00,,,0.05,28,WeatherCatV1.20B785,2013-11-27 13:27:00,
2013-11-27 08:28:00,37.4,33.3,29.66,NW,306,4.0,8.0,85,0.00,,,0.05,28,WeatherCatV1.20B785,2013-11-27 13:28:00,
2013-11-27 08:29:00,37.4,33.3,29.66,NNW,348,4.0,8.0,85,0.00,,,0.05,30,WeatherCatV1.20B785,2013-11-27 13:29:00,
2013-11-27 08:30:00,37.4,33.3,29.66,WNW,303,1.0,4.0,85,0.00,,,0.05,30,WeatherCatV1.20B785,2013-11-27 13:30:00,
2013-11-27 08:32:00,37.4,33.0,29.67,NW,314,4.0,4.0,84,0.00,,,0.05,23,WeatherCatV1.20B785,2013-11-27 13:32:00,
2013-11-27 08:34:00,37.4,33.0,29.67,WNW,293,2.0,8.0,84,0.00,,,0.05,19,WeatherCatV1.20B785,2013-11-27 13:34:00,
2013-11-27 08:35:00,37.4,33.0,29.68,NW,314,7.0,7.0,84,0.00,,,0.05,18,WeatherCatV1.20B785,2013-11-27 13:35:00,
2013-11-27 08:37:00,37.4,33.0,29.68,WNW,302,3.0,7.0,84,0.00,,,0.05,16,WeatherCatV1.20B785,2013-11-27 13:37:00,
2013-11-27 08:38:00,37.4,33.0,29.67,NW,316,2.0,4.0,84,0.00,,,0.05,18,WeatherCatV1.20B785,2013-11-27 13:38:00,
2013-11-27 08:39:00,37.4,33.0,29.67,West,277,5.0,5.0,84,0.00,,,0.05,19,WeatherCatV1.20B785,2013-11-27 13:39:00,
2013-11-27 08:40:00,37.4,33.0,29.67,West,273,3.0,5.0,84,0.00,,,0.05,21,WeatherCatV1.20B785,2013-11-27 13:40:00,
2013-11-27 08:42:00,37.5,33.1,29.68,WSW,241,7.0,7.0,84,0.00,,,0.05,18,WeatherCatV1.20B785,2013-11-27 13:42:00,
2013-11-27 08:44:00,37.4,32.7,29.68,West,269,2.0,7.0,83,0.00,,,0.05,16,WeatherCatV1.20B785,2013-11-27 13:44:00,
2013-11-27 08:45:00,37.4,32.7,29.68,West,275,3.0,4.0,83,0.00,,,0.05,14,WeatherCatV1.20B785,2013-11-27 13:45:00,
2013-11-27 08:46:00,37.5,32.8,29.68,WNW,294,10.0,11.0,83,0.00,,,0.05,16,WeatherCatV1.20B785,2013-11-27 13:46:00,
2013-11-27 08:47:00,37.4,32.7,29.68,NNE,12,4.0,11.0,83,0.00,,,0.05,19,WeatherCatV1.20B785,2013-11-27 13:47:00,
2013-11-27 08:49:00,37.5,32.8,29.69,WNW,283,4.0,6.0,83,0.00,,,0.05,18,WeatherCatV1.20B785,2013-11-27 13:49:00,
2013-11-27 08:50:00,37.5,32.8,29.69,WSW,244,2.0,6.0,83,0.00,,,0.05,18,WeatherCatV1.20B785,2013-11-27 13:50:00,
2013-11-27 08:51:00,37.5,33.4,29.69,NNW,328,2.0,10.0,85,0.00,,,0.05,19,WeatherCatV1.20B785,2013-11-27 13:51:00,
2013-11-27 08:52:00,37.4,33.0,29.70,NW,321,4.0,10.0,84,0.00,,,0.05,21,WeatherCatV1.20B785,2013-11-27 13:52:00,
2013-11-27 08:53:00,37.4,33.0,29.70,WSW,245,4.0,8.0,84,0.00,,,0.05,19,WeatherCatV1.20B785,2013-11-27 13:53:00,
2013-11-27 08:55:00,37.4,33.0,29.70,West,279,5.0,9.0,84,0.00,,,0.05,19,WeatherCatV1.20B785,2013-11-27 13:55:00,
2013-11-27 08:56:00,37.4,33.0,29.70,WSW,246,3.0,9.0,84,0.00,,,0.05,18,WeatherCatV1.20B785,2013-11-27 13:56:00,
2013-11-27 08:58:00,37.3,32.9,29.69,WNW,292,1.0,5.0,84,0.00,,,0.05,21,WeatherCatV1.20B785,2013-11-27 13:58:00,
2013-11-27 09:00:00,37.3,33.2,29.69,West,270,2.0,4.0,85,0.00,,,0.05,33,WeatherCatV1.20B785,2013-11-27 14:00:00,
2013-11-27 09:01:00,37.3,33.2,29.69,NW,314,2.0,6.0,85,0.00,,,0.05,39,WeatherCatV1.20B785,2013-11-27 14:01:00,
2013-11-27 09:03:00,37.3,32.9,29.68,NW,311,4.0,7.0,84,0.00,,,0.05,33,WeatherCatV1.20B785,2013-11-27 14:03:00,
2013-11-27 09:05:00,37.2,33.1,29.67,NW,318,3.0,5.0,85,0.00,,,0.05,25,WeatherCatV1.20B785,2013-11-27 14:05:00,
2013-11-27 09:06:00,37.2,32.8,29.68,West,266,1.0,9.0,84,0.00,,,0.05,23,WeatherCatV1.20B785,2013-11-27 14:06:00,
2013-11-27 09:09:00,37.1,33.0,29.70,NW,312,3.0,5.0,85,0.00,,,0.05,19,WeatherCatV1.20B785,2013-11-27 14:09:00,
2013-11-27 09:10:00,37.1,33.0,29.70,NW,304,3.0,5.0,85,0.00,,,0.05,21,WeatherCatV1.20B785,2013-11-27 14:10:00,
2013-11-27 09:11:00,37.1,33.0,29.70,NNW,342,2.0,5.0,85,0.00,,,0.05,19,WeatherCatV1.20B785,2013-11-27 14:11:00,
2013-11-27 09:15:00,37.1,33.0,29.68,NW,325,2.0,3.0,85,0.00,,,0.05,33,WeatherCatV1.20B785,2013-11-27 14:15:00,
2013-11-27 09:16:00,37.1,33.0,29.68,North,351,2.0,3.0,85,0.00,,,0.05,39,WeatherCatV1.20B785,2013-11-27 14:16:00,
2013-11-27 09:17:00,37.0,32.9,29.67,NNW,331,2.0,11.0,85,0.00,,,0.05,32,WeatherCatV1.20B785,2013-11-27 14:17:00,
2013-11-27 09:21:00,37.0,32.9,29.68,West,273,4.0,4.0,85,0.00,,,0.05,26,WeatherCatV1.20B785,2013-11-27 14:21:00,
2013-11-27 09:22:00,37.0,33.2,29.68,WNW,292,5.0,9.0,86,0.00,,,0.05,25,WeatherCatV1.20B785,2013-11-27 14:22:00,
2013-11-27 09:26:00,37.0,33.2,29.68,NW,312,2.0,4.0,86,0.00,,,0.05,28,WeatherCatV1.20B785,2013-11-27 14:26:00,
2013-11-27 09:27:00,37.0,33.2,29.68,WNW,302,4.0,5.0,86,0.00,,,0.05,28,WeatherCatV1.20B785,2013-11-27 14:27:00,
2013-11-27 09:28:00,37.0,33.2,29.68,West,271,4.0,8.0,86,0.00,,,0.05,28,WeatherCatV1.20B785,2013-11-27 14:28:00,
2013-11-27 09:31:00,36.9,33.1,29.68,WSW,246,3.0,3.0,86,0.00,,,0.05,60,WeatherCatV1.20B785,2013-11-27 14:31:00,
2013-11-27 09:32:00,36.9,33.1,29.68,WSW,258,2.0,4.0,86,0.00,,,0.05,46,WeatherCatV1.20B785,2013-11-27 14:32:00,
2013-11-27 09:33:00,36.9,33.1,29.68,West,272,1.0,4.0,86,0.00,,,0.05,46,WeatherCatV1.20B785,2013-11-27 14:33:00,
2013-11-27 09:36:00,36.9,33.4,29.68,West,271,0.0,0.0,87,0.00,,,0.05,44,WeatherCatV1.20B785,2013-11-27 14:36:00,
2013-11-27 09:38:00,36.9,33.4,29.67,West,271,1.0,1.0,87,0.00,,,0.05,44,WeatherCatV1.20B785,2013-11-27 14:38:00,
2013-11-27 09:39:00,36.9,33.4,29.67,NW,306,2.0,4.0,87,0.00,,,0.05,54,WeatherCatV1.20B785,2013-11-27 14:39:00,
2013-11-27 09:42:00,36.9,33.1,29.67,WNW,287,5.0,5.0,86,0.00,,,0.05,72,WeatherCatV1.20B785,2013-11-27 14:42:00,
2013-11-27 09:43:00,36.9,33.1,29.67,WNW,302,2.0,6.0,86,0.00,,,0.05,91,WeatherCatV1.20B785,2013-11-27 14:43:00,
2013-11-27 09:44:00,36.9,33.1,29.67,WNW,288,2.0,3.0,86,0.00,,,0.05,84,WeatherCatV1.20B785,2013-11-27 14:44:00,
2013-11-27 09:45:00,36.9,33.4,29.67,West,279,1.0,3.0,87,0.00,,,0.05,86,WeatherCatV1.20B785,2013-11-27 14:45:00,
2013-11-27 09:48:00,37.0,33.5,29.67,West,260,2.0,4.0,87,0.00,,,0.05,70,WeatherCatV1.20B785,2013-11-27 14:48:00,
2013-11-27 09:49:00,37.0,33.2,29.68,NW,304,2.0,5.0,86,0.00,,,0.05,69,WeatherCatV1.20B785,2013-11-27 14:49:00,
2013-11-27 09:52:00,37.0,33.2,29.68,West,280,1.0,4.0,86,0.00,,,0.05,65,WeatherCatV1.20B785,2013-11-27 14:52:00,
2013-11-27 09:53:00,37.0,33.2,29.68,North,350,2.0,2.0,86,0.00,,,0.05,69,WeatherCatV1.20B785,2013-11-27 14:53:00,
2013-11-27 09:54:00,37.0,33.2,29.68,West,268,4.0,6.0,86,0.00,,,0.05,60,WeatherCatV1.20B785,2013-11-27 14:54:00,
2013-11-27 09:58:00,37.1,33.3,29.69,WNW,282,0.0,4.0,86,0.00,,,0.05,44,WeatherCatV1.20B785,2013-11-27 14:58:00,
2013-11-27 09:59:00,37.1,33.3,29.69,WNW,283,0.0,4.0,86,0.00,,,0.05,47,WeatherCatV1.20B785,2013-11-27 14:59:00,
2013-11-27 10:00:00,37.1,33.6,29.69,NW,326,1.0,1.0,87,0.00,,,0.05,49,WeatherCatV1.20B785,2013-11-27 15:00:00,
2013-11-27 10:03:00,37.1,33.0,29.69,WSW,249,5.0,9.0,85,0.00,,,0.05,33,WeatherCatV1.20B785,2013-11-27 15:03:00,
2013-11-27 10:04:00,37.1,33.0,29.69,WSW,255,3.0,9.0,85,0.00,,,0.05,37,WeatherCatV1.20B785,2013-11-27 15:04:00,
2013-11-27 10:05:00,37.1,33.0,29.69,NE,46,1.0,3.0,85,0.00,,,0.05,44,WeatherCatV1.20B785,2013-11-27 15:05:00,
2013-11-27 10:09:00,37.2,33.4,29.68,NW,318,1.0,3.0,86,0.00,,,0.05,60,WeatherCatV1.20B785,2013-11-27 15:09:00,
2013-11-27 10:10:00,37.2,33.4,29.68,NW,305,4.0,5.0,86,0.00,,,0.05,67,WeatherCatV1.20B785,2013-11-27 15:10:00,
2013-11-27 10:11:00,37.2,33.1,29.67,NW,312,7.0,8.0,85,0.00,,,0.05,69,WeatherCatV1.20B785,2013-11-27 15:11:00,
2013-11-27 10:14:00,37.2,33.1,29.68,NW,310,4.0,4.0,85,0.00,,,0.05,67,WeatherCatV1.20B785,2013-11-27 15:14:00,
2013-11-27 10:15:00,37.2,33.1,29.68,NW,316,2.0,4.0,85,0.00,,,0.05,70,WeatherCatV1.20B785,2013-11-27 15:15:00,
2013-11-27 10:16:00,37.2,33.1,29.68,North,358,4.0,6.0,85,0.00,,,0.05,70,WeatherCatV1.20B785,2013-11-27 15:16:00,
2013-11-27 10:19:00,37.3,32.9,29.68,WNW,289,4.0,5.0,84,0.00,,,0.05,70,WeatherCatV1.20B785,2013-11-27 15:19:00,
2013-11-27 10:20:00,37.4,33.0,29.68,NW,323,3.0,5.0,84,0.00,,,0.05,54,WeatherCatV1.20B785,2013-11-27 15:20:00,
2013-11-27 10:21:00,37.4,33.0,29.68,West,266,4.0,4.0,84,0.00,,,0.05,54,WeatherCatV1.20B785,2013-11-27 15:21:00,
2013-11-27 10:24:00,37.4,32.7,29.67,WNW,291,6.0,6.0,83,0.00,,,0.05,58,WeatherCatV1.20B785,2013-11-27 15:24:00,
2013-11-27 10:25:00,37.5,33.1,29.67,WNW,302,6.0,9.0,84,0.00,,,0.05,69,WeatherCatV1.20B785,2013-11-27 15:25:00,
2013-11-27 10:26:00,37.4,32.7,29.67,WNW,284,11.0,11.0,83,0.00,,,0.05,69,WeatherCatV1.20B785,2013-11-27 15:26:00,
2013-11-27 10:29:00,37.5,32.8,29.66,NNW,336,3.0,6.0,83,0.00,,,0.05,90,WeatherCatV1.20B785,2013-11-27 15:29:00,
2013-11-27 10:30:00,37.5,32.5,29.66,NW,316,3.0,6.0,82,0.00,,,0.05,90,WeatherCatV1.20B785,2013-11-27 15:30:00,
2013-11-27 10:31:00,37.6,32.6,29.66,NW,317,3.0,4.0,82,0.00,,,0.05,102,WeatherCatV1.20B785,2013-11-27 15:31:00,
2013-11-27 10:32:00,37.6,32.6,29.66,North,7,3.0,4.0,82,0.00,,,0.05,107,WeatherCatV1.20B785,2013-11-27 15:32:00,
2013-11-27 10:34:00,37.7,32.7,29.66,NW,319,4.0,5.0,82,0.00,,,0.05,111,WeatherCatV1.20B785,2013-11-27 15:34:00,
2013-11-27 10:35:00,37.7,32.7,29.67,WNW,291,5.0,6.0,82,0.00,,,0.05,111,WeatherCatV1.20B785,2013-11-27 15:35:00,
2013-11-27 10:36:00,37.8,32.5,29.67,WNW,296,8.0,10.0,81,0.00,,,0.05,105,WeatherCatV1.20B785,2013-11-27 15:36:00,
2013-11-27 10:37:00,37.8,32.8,29.66,West,275,2.0,10.0,82,0.00,,,0.05,107,WeatherCatV1.20B785,2013-11-27 15:37:00,
2013-11-27 10:39:00,37.9,32.9,29.67,NNE,12,1.0,8.0,82,0.00,,,0.05,79,WeatherCatV1.20B785,2013-11-27 15:39:00,
2013-11-27 10:40:00,37.9,32.9,29.67,West,264,5.0,6.0,82,0.00,,,0.05,79,WeatherCatV1.20B785,2013-11-27 15:40:00,
2013-11-27 10:42:00,37.9,32.3,29.67,NW,318,2.0,9.0,80,0.00,,,0.05,69,WeatherCatV1.20B785,2013-11-27 15:42:00,
2013-11-27 10:45:00,38.0,32.7,29.67,North,349,5.0,7.0,81,0.00,,,0.05,95,WeatherCatV1.20B785,2013-11-27 15:45:00,
2013-11-27 10:47:00,38.0,32.4,29.66,NNW,335,4.0,5.0,80,0.00,,,0.05,118,WeatherCatV1.20B785,2013-11-27 15:47:00,
2013-11-27 10:48:00,38.0,32.7,29.66,North,352,6.0,11.0,81,0.00,,,0.05,118,WeatherCatV1.20B785,2013-11-27 15:48:00,
2013-11-27 10:50:00,38.1,32.5,29.66,NW,314,4.0,7.0,80,0.00,,,0.05,91,WeatherCatV1.20B785,2013-11-27 15:50:00,
2013-11-27 10:51:00,38.1,32.5,29.66,WNW,291,4.0,6.0,80,0.00,,,0.05,83,WeatherCatV1.20B785,2013-11-27 15:51:00,
2013-11-27 10:52:00,38.1,32.5,29.66,NW,321,4.0,6.0,80,0.00,,,0.05,104,WeatherCatV1.20B785,2013-11-27 15:52:00,
2013-11-27 10:53:00,38.1,32.5,29.66,NW,318,4.0,6.0,80,0.00,,,0.05,104,WeatherCatV1.20B785,2013-11-27 15:53:00,
2013-11-27 10:54:00,38.2,32.6,29.66,NW,316,4.0,6.0,80,0.00,,,0.05,109,WeatherCatV1.20B785,2013-11-27 15:54:00,
2013-11-27 10:55:00,38.2,32.6,29.65,WNW,300,3.0,7.0,80,0.00,,,0.05,121,WeatherCatV1.20B785,2013-11-27 15:55:00,
2013-11-27 10:56:00,38.2,32.6,29.65,West,269,3.0,4.0,80,0.00,,,0.05,102,WeatherCatV1.20B785,2013-11-27 15:56:00,
2013-11-27 10:57:00,38.2,32.6,29.65,NNW,336,2.0,6.0,80,0.00,,,0.05,98,WeatherCatV1.20B785,2013-11-27 15:57:00,
2013-11-27 10:58:00,38.2,32.6,29.65,WSW,258,6.0,7.0,80,0.00,,,0.05,98,WeatherCatV1.20B785,2013-11-27 15:58:00,
2013-11-27 10:59:00,38.2,32.3,29.65,West,279,4.0,10.0,79,0.00,,,0.05,67,WeatherCatV1.20B785,2013-11-27 15:59:00,
2013-11-27 11:00:00,38.2,32.3,29.65,NNW,340,1.0,10.0,79,0.00,,,0.05,65,WeatherCatV1.20B785,2013-11-27 16:00:00,
2013-11-27 11:02:00,38.2,32.6,29.65,West,278,3.0,4.0,80,0.00,,,0.05,62,WeatherCatV1.20B785,2013-11-27 16:02:00,
2013-11-27 11:03:00,38.2,32.6,29.65,WNW,292,1.0,4.0,80,0.00,,,0.05,58,WeatherCatV1.20B785,2013-11-27 16:03:00,
2013-11-27 11:04:00,38.2,32.6,29.65,NW,310,2.0,4.0,80,0.00,,,0.05,58,WeatherCatV1.20B785,2013-11-27 16:04:00,
2013-11-27 11:06:00,38.2,32.3,29.65,West,269,2.0,5.0,79,0.00,,,0.05,83,WeatherCatV1.20B785,2013-11-27 16:06:00,
2013-11-27 11:07:00,38.2,32.3,29.64,WNW,295,3.0,6.0,79,0.00,,,0.05,100,WeatherCatV1.20B785,2013-11-27 16:07:00,
2013-11-27 11:08:00,38.2,32.3,29.64,North,351,5.0,6.0,79,0.00,,,0.05,102,WeatherCatV1.20B785,2013-11-27 16:08:00,
2013-11-27 11:09:00,38.2,32.3,29.64,WNW,301,2.0,5.0,79,0.00,,,0.05,120,WeatherCatV1.20B785,2013-11-27 16:09:00,
2013-11-27 11:11:00,38.3,32.4,29.64,NW,309,2.0,7.0,79,0.00,,,0.05,111,WeatherCatV1.20B785,2013-11-27 16:11:00,
2013-11-27 11:13:00,38.3,32.7,29.64,North,350,2.0,5.0,80,0.00,,,0.05,105,WeatherCatV1.20B785,2013-11-27 16:13:00,
2013-11-27 11:16:00,38.4,32.5,29.65,NW,316,4.0,6.0,79,0.00,,,0.05,91,WeatherCatV1.20B785,2013-11-27 16:16:00,
2013-11-27 11:19:00,38.4,32.2,29.64,NNE,12,5.0,17.0,78,0.00,,,0.05,76,WeatherCatV1.20B785,2013-11-27 16:19:00,
2013-11-27 11:21:00,38.3,31.7,29.65,West,266,9.0,14.0,77,0.00,,,0.05,83,WeatherCatV1.20B785,2013-11-27 16:21:00,
2013-11-27 11:22:00,38.3,32.0,29.65,WSW,258,9.0,14.0,78,0.00,,,0.05,54,WeatherCatV1.20B785,2013-11-27 16:22:00,
2013-11-27 11:24:00,38.3,31.7,29.66,West,277,4.0,10.0,77,0.00,,,0.05,56,WeatherCatV1.20B785,2013-11-27 16:24:00,
2013-11-27 11:26:00,38.2,31.6,29.65,WNW,293,3.0,8.0,77,0.00,,,0.05,54,WeatherCatV1.20B785,2013-11-27 16:26:00,
2013-11-27 11:27:00,38.2,31.6,29.66,WNW,293,6.0,8.0,77,0.00,,,0.05,62,WeatherCatV1.20B785,2013-11-27 16:27:00,
2013-11-27 11:29:00,38.2,31.6,29.65,NNW,329,3.0,5.0,77,0.00,,,0.05,81,WeatherCatV1.20B785,2013-11-27 16:29:00,
2013-11-27 11:31:00,38.2,31.3,29.64,NNW,348,5.0,6.0,76,0.00,,,0.05,93,WeatherCatV1.20B785,2013-11-27 16:31:00,
2013-11-27 11:32:00,38.3,31.4,29.64,North,356,5.0,7.0,76,0.00,,,0.05,93,WeatherCatV1.20B785,2013-11-27 16:32:00,
2013-11-27 11:33:00,38.2,31.3,29.64,NW,305,13.0,13.0,76,0.00,,,0.05,93,WeatherCatV1.20B785,2013-11-27 16:33:00,
2013-11-27 11:35:00,38.3,31.4,29.64,West,263,6.0,11.0,76,0.00,,,0.05,146,WeatherCatV1.20B785,2013-11-27 16:35:00,
2013-11-27 11:37:00,38.3,31.4,29.64,NW,313,11.0,11.0,76,0.00,,,0.05,132,WeatherCatV1.20B785,2013-11-27 16:37:00,
2013-11-27 11:38:00,38.4,31.5,29.64,NW,316,5.0,12.0,76,0.00,,,0.05,72,WeatherCatV1.20B785,2013-11-27 16:38:00,
2013-11-27 11:39:00,38.4,31.5,29.64,NW,306,5.0,12.0,76,0.00,,,0.05,65,WeatherCatV1.20B785,2013-11-27 16:39:00,
2013-11-27 11:40:00,38.4,31.2,29.64,North,7,3.0,8.0,75,0.00,,,0.05,76,WeatherCatV1.20B785,2013-11-27 16:40:00,
2013-11-27 11:42:00,38.4,32.2,29.65,NW,310,5.0,5.0,78,0.00,,,0.05,69,WeatherCatV1.20B785,2013-11-27 16:42:00,
2013-11-27 11:43:00,38.4,32.2,29.65,NNW,331,4.0,5.0,78,0.00,,,0.05,69,WeatherCatV1.20B785,2013-11-27 16:43:00,
2013-11-27 11:44:00,38.4,31.8,29.66,WNW,293,3.0,4.0,77,0.00,,,0.05,77,WeatherCatV1.20B785,2013-11-27 16:44:00,
2013-11-27 11:45:00,38.4,31.8,29.67,North,355,2.0,4.0,77,0.00,,,0.05,77,WeatherCatV1.20B785,2013-11-27 16:45:00,
2013-11-27 11:48:00,38.4,31.8,29.66,WNW,298,7.0,9.0,77,0.00,,,0.05,62,WeatherCatV1.20B785,2013-11-27 16:48:00,
2013-11-27 11:49:00,38.4,31.8,29.66,West,279,3.0,9.0,77,0.00,,,0.05,72,WeatherCatV1.20B785,2013-11-27 16:49:00,
2013-11-27 11:50:00,38.4,31.8,29.65,WNW,289,5.0,12.0,77,0.00,,,0.05,93,WeatherCatV1.20B785,2013-11-27 16:50:00,
2013-11-27 11:53:00,38.4,31.2,29.64,NW,308,3.0,6.0,75,0.00,,,0.05,53,WeatherCatV1.20B785,2013-11-27 16:53:00,
2013-11-27 11:54:00,38.3,31.1,29.64,WNW,292,4.0,6.0,75,0.00,,,0.05,53,WeatherCatV1.20B785,2013-11-27 16:54:00,
2013-11-27 11:55:00,38.3,31.4,29.64,NNW,327,1.0,6.0,76,0.00,,,0.05,70,WeatherCatV1.20B785,2013-11-27 16:55:00,
2013-11-27 11:56:00,38.3,31.7,29.63,NW,323,2.0,4.0,77,0.00,,,0.05,79,WeatherCatV1.20B785,2013-11-27 16:56:00,
2013-11-27 11:59:00,38.3,31.7,29.63,NW,321,5.0,9.0,77,0.00,,,0.05,58,WeatherCatV1.20B785,2013-11-27 16:59:00,
2013-11-27 12:01:00,38.3,31.1,29.64,NW,318,4.0,8.0,75,0.00,,,0.05,51,WeatherCatV1.20B785,2013-11-27 17:01:00,
2013-11-27 12:02:00,38.3,31.4,29.64,North,358,2.0,7.0,76,0.00,,,0.05,54,WeatherCatV1.20B785,2013-11-27 17:02:00,
2013-11-27 12:04:00,38.2,31.0,29.64,NW,321,2.0,6.0,75,0.00,,,0.05,56,WeatherCatV1.20B785,2013-11-27 17:04:00,
2013-11-27 12:05:00,38.2,31.0,29.64,North,0,2.0,6.0,75,0.00,,,0.05,56,WeatherCatV1.20B785,2013-11-27 17:05:00,
2013-11-27 12:06:00,38.2,31.3,29.63,NW,307,3.0,3.0,76,0.00,,,0.05,53,WeatherCatV1.20B785,2013-11-27 17:06:00,
2013-11-27 12:07:00,38.2,31.0,29.64,North,354,2.0,4.0,75,0.00,,,0.05,53,WeatherCatV1.20B785,2013-11-27 17:07:00,
2013-11-27 12:09:00,38.2,31.3,29.64,South,179,7.0,7.0,76,0.00,,,0.05,46,WeatherCatV1.20B785,2013-11-27 17:09:00,
2013-11-27 12:10:00,38.2,30.7,29.64,NNE,17,6.0,7.0,74,0.00,,,0.05,39,WeatherCatV1.20B785,2013-11-27 17:10:00,
2013-11-27 12:11:00,38.2,30.7,29.64,ENE,75,3.0,7.0,74,0.00,,,0.05,39,WeatherCatV1.20B785,2013-11-27 17:11:00,
2013-11-27 12:12:00,38.2,31.3,29.64,NNE,23,3.0,6.0,76,0.00,,,0.05,40,WeatherCatV1.20B785,2013-11-27 17:12:00,
2013-11-27 12:14:00,38.2,31.3,29.63,North,356,2.0,8.0,76,0.00,,,0.05,47,WeatherCatV1.20B785,2013-11-27 17:14:00,
2013-11-27 12:17:00,38.2,31.3,29.65,WNW,287,3.0,3.0,76,0.00,,,0.05,37,WeatherCatV1.20B785,2013-11-27 17:17:00,
2013-11-27 12:19:00,38.1,31.2,29.66,WNW,291,4.0,8.0,76,0.00,,,0.05,35,WeatherCatV1.20B785,2013-11-27 17:19:00,
2013-11-27 12:22:00,38.0,31.1,29.65,NNW,329,1.0,7.0,76,0.00,,,0.05,33,WeatherCatV1.20B785,2013-11-27 17:22:00,
2013-11-27 12:23:00,38.0,31.1,29.65,NNW,339,2.0,7.0,76,0.00,,,0.05,39,WeatherCatV1.20B785,2013-11-27 17:23:00,
2013-11-27 12:24:00,38.0,31.1,29.65,WNW,301,10.0,11.0,76,0.00,,,0.05,39,WeatherCatV1.20B785,2013-11-27 17:24:00,
2013-11-27 12:27:00,37.9,31.0,29.65,WNW,290,6.0,7.0,76,0.00,,,0.05,49,WeatherCatV1.20B785,2013-11-27 17:27:00,
2013-11-27 12:28:00,37.9,31.0,29.65,NW,325,7.0,9.0,76,0.00,,,0.05,49,WeatherCatV1.20B785,2013-11-27 17:28:00,
2013-11-27 12:29:00,37.9,31.0,29.65,NW,308,6.0,9.0,76,0.00,,,0.05,49,WeatherCatV1.20B785,2013-11-27 17:29:00,
2013-11-27 12:30:00,37.8,30.9,29.64,WNW,291,5.0,9.0,76,0.00,,,0.05,40,WeatherCatV1.20B785,2013-11-27 17:30:00,
2013-11-27 12:33:00,37.8,30.9,29.65,North,350,1.0,5.0,76,0.00,,,0.05,26,WeatherCatV1.20B785,2013-11-27 17:33:00,
2013-11-27 12:34:00,37.8,30.9,29.65,WNW,296,4.0,5.0,76,0.00,,,0.05,26,WeatherCatV1.20B785,2013-11-27 17:34:00,
2013-11-27 12:35:00,37.8,31.2,29.66,NNW,329,2.0,7.0,77,0.00,,,0.05,33,WeatherCatV1.20B785,2013-11-27 17:35:00,
2013-11-27 12:39:00,37.7,30.8,29.66,NNW,346,2.0,7.0,76,0.00,,,0.05,37,WeatherCatV1.20B785,2013-11-27 17:39:00,
2013-11-27 12:40:00,37.7,30.8,29.66,NNW,334,3.0,5.0,76,0.00,,,0.05,28,WeatherCatV1.20B785,2013-11-27 17:40:00,
2013-11-27 12:42:00,37.7,31.1,29.67,North,2,2.0,4.0,77,0.00,,,0.05,30,WeatherCatV1.20B785,2013-11-27 17:42:00,
2013-11-27 12:44:00,37.7,31.1,29.68,NE,38,2.0,5.0,77,0.00,,,0.05,30,WeatherCatV1.20B785,2013-11-27 17:44:00,
2013-11-27 12:45:00,37.7,30.8,29.68,West,279,3.0,5.0,76,0.00,,,0.05,33,WeatherCatV1.20B785,2013-11-27 17:45:00,
2013-11-27 12:46:00,37.7,30.8,29.68,West,280,6.0,6.0,76,0.00,,,0.05,33,WeatherCatV1.20B785,2013-11-27 17:46:00,
2013-11-27 12:48:00,37.7,30.8,29.67,WNW,297,3.0,11.0,76,0.00,,,0.05,35,WeatherCatV1.20B785,2013-11-27 17:48:00,
2013-11-27 12:49:00,37.7,31.1,29.66,West,280,6.0,6.0,77,0.00,,,0.05,33,WeatherCatV1.20B785,2013-11-27 17:49:00,
2013-11-27 12:50:00,37.7,31.1,29.66,WSW,239,8.0,11.0,77,0.00,,,0.05,42,WeatherCatV1.20B785,2013-11-27 17:50:00,
2013-11-27 12:51:00,37.6,31.0,29.66,WNW,287,9.0,11.0,77,0.00,,,0.05,42,WeatherCatV1.20B785,2013-11-27 17:51:00,
2013-11-27 12:54:00,37.6,31.0,29.65,NW,322,1.0,2.0,77,0.00,,,0.05,32,WeatherCatV1.20B785,2013-11-27 17:54:00,
2013-11-27 12:55:00,37.6,31.0,29.65,NW,310,7.0,8.0,77,0.00,,,0.05,33,WeatherCatV1.20B785,2013-11-27 17:55:00,
2013-11-27 12:56:00,37.6,31.0,29.65,NW,318,4.0,8.0,77,0.00,,,0.05,33,WeatherCatV1.20B785,2013-11-27 17:56:00,
2013-11-27 12:59:00,37.5,31.0,29.65,WNW,291,5.0,9.0,77,0.00,,,0.05,35,WeatherCatV1.20B785,2013-11-27 17:59:00,
2013-11-27 13:00:00,37.5,30.6,29.65,NW,312,2.0,8.0,76,0.00,,,0.05,42,WeatherCatV1.20B785,2013-11-27 18:00:00,
2013-11-27 13:01:00,37.5,31.0,29.65,WNW,302,5.0,7.0,77,0.00,,,0.05,44,WeatherCatV1.20B785,2013-11-27 18:01:00,
2013-11-27 13:02:00,37.5,31.0,29.65,WNW,283,4.0,7.0,77,0.00,,,0.05,39,WeatherCatV1.20B785,2013-11-27 18:02:00,
2013-11-27 13:04:00,37.5,31.0,29.66,NW,304,2.0,8.0,77,0.00,,,0.05,32,WeatherCatV1.20B785,2013-11-27 18:04:00,
2013-11-27 13:05:00,37.5,31.0,29.65,WNW,290,8.0,12.0,77,0.00,,,0.05,28,WeatherCatV1.20B785,2013-11-27 18:05:00,
2013-11-27 13:06:00,37.5,31.0,29.65,WNW,298,5.0,12.0,77,0.00,,,0.05,37,WeatherCatV1.20B785,2013-11-27 18:06:00,
2013-11-27 13:07:00,37.5,31.0,29.64,NW,318,6.0,6.0,77,0.00,,,0.05,47,WeatherCatV1.20B785,2013-11-27 18:07:00,
2013-11-27 13:08:00,37.5,31.0,29.64,WNW,293,5.0,6.0,77,0.00,,,0.05,42,WeatherCatV1.20B785,2013-11-27 18:08:00,
2013-11-27 13:09:00,37.5,31.0,29.64,North,3,2.0,6.0,77,0.00,,,0.05,44,WeatherCatV1.20B785,2013-11-27 18:09:00,
2013-11-27 13:10:00,37.5,31.0,29.64,North,2,2.0,6.0,77,0.00,,,0.05,51,WeatherCatV1.20B785,2013-11-27 18:10:00,
2013-11-27 13:11:00,37.5,31.0,29.63,NW,321,2.0,5.0,77,0.00,,,0.05,58,WeatherCatV1.20B785,2013-11-27 18:11:00,
2013-11-27 13:13:00,37.5,31.3,29.63,NNE,22,4.0,6.0,78,0.00,,,0.05,60,WeatherCatV1.20B785,2013-11-27 18:13:00,
2013-11-27 13:16:00,37.5,31.0,29.63,WNW,302,6.0,11.0,77,0.00,,,0.05,47,WeatherCatV1.20B785,2013-11-27 18:16:00,
2013-11-27 13:17:00,37.5,31.0,29.64,WNW,298,7.0,16.0,77,0.00,,,0.05,44,WeatherCatV1.20B785,2013-11-27 18:17:00,
2013-11-27 13:18:00,37.5,31.0,29.63,NW,312,4.0,16.0,77,0.00,,,0.05,46,WeatherCatV1.20B785,2013-11-27 18:18:00,
2013-11-27 13:21:00,37.4,30.9,29.64,WSW,241,4.0,8.0,77,0.00,,,0.05,42,WeatherCatV1.20B785,2013-11-27 18:21:00,
2013-11-27 13:22:00,37.4,30.9,29.64,North,356,2.0,8.0,77,0.00,,,0.05,42,WeatherCatV1.20B785,2013-11-27 18:22:00,
2013-11-27 13:24:00,37.4,30.9,29.64,North,357,5.0,7.0,77,0.00,,,0.05,44,WeatherCatV1.20B785,2013-11-27 18:24:00,
2013-11-27 13:26:00,37.4,30.9,29.63,NE,34,6.0,8.0,77,0.00,,,0.05,40,WeatherCatV1.20B785,2013-11-27 18:26:00,
2013-11-27 13:27:00,37.4,30.5,29.63,NE,47,8.0,8.0,76,0.00,,,0.05,40,WeatherCatV1.20B785,2013-11-27 18:27:00,
2013-11-27 13:29:00,37.4,31.2,29.63,WNW,285,7.0,10.0,78,0.00,,,0.05,40,WeatherCatV1.20B785,2013-11-27 18:29:00,
2013-11-27 13:31:00,37.4,30.5,29.64,WNW,298,7.0,17.0,76,0.00,,,0.05,37,WeatherCatV1.20B785,2013-11-27 18:31:00,
2013-11-27 13:32:00,37.4,30.9,29.64,WNW,290,6.0,9.0,77,0.00,,,0.05,37,WeatherCatV1.20B785,2013-11-27 18:32:00,
2013-11-27 13:33:00,37.4,30.5,29.64,NW,305,7.0,8.0,76,0.00,,,0.05,39,WeatherCatV1.20B785,2013-11-27 18:33:00,
2013-11-27 13:34:00,37.4,30.5,29.64,West,262,4.0,9.0,76,0.00,,,0.05,44,WeatherCatV1.20B785,2013-11-27 18:34:00,
2013-11-27 13:37:00,37.4,30.5,29.64,WNW,295,5.0,8.0,76,0.00,,,0.05,32,WeatherCatV1.20B785,2013-11-27 18:37:00,
2013-11-27 13:38:00,37.4,30.5,29.64,NNW,342,5.0,8.0,76,0.00,,,0.05,32,WeatherCatV1.20B785,2013-11-27 18:38:00,
2013-11-27 13:40:00,37.4,30.5,29.64,WNW,289,5.0,9.0,76,0.00,,,0.05,37,WeatherCatV1.20B785,2013-11-27 18:40:00,
2013-11-27 13:42:00,37.4,30.9,29.64,West,262,1.0,6.0,77,0.00,,,0.05,39,WeatherCatV1.20B785,2013-11-27 18:42:00,
2013-11-27 13:43:00,37.4,30.5,29.64,NNE,12,4.0,8.0,76,0.00,,,0.05,37,WeatherCatV1.20B785,2013-11-27 18:43:00,
2013-11-27 13:45:00,37.4,30.5,29.65,WNW,293,3.0,8.0,76,0.00,,,0.05,33,WeatherCatV1.20B785,2013-11-27 18:45:00,
2013-11-27 13:47:00,37.4,30.9,29.65,WNW,299,8.0,8.0,77,0.00,,,0.05,30,WeatherCatV1.20B785,2013-11-27 18:47:00,
2013-11-27 13:48:00,37.3,30.8,29.65,NE,35,7.0,10.0,77,0.00,,,0.05,40,WeatherCatV1.20B785,2013-11-27 18:48:00,
2013-11-27 13:50:00,37.3,30.1,29.64,WNW,295,3.0,9.0,75,0.00,,,0.05,42,WeatherCatV1.20B785,2013-11-27 18:50:00,
2013-11-27 13:51:00,37.4,30.5,29.64,WNW,293,3.0,4.0,76,0.00,,,0.05,40,WeatherCatV1.20B785,2013-11-27 18:51:00,
2013-11-27 13:53:00,37.4,30.5,29.65,WNW,285,6.0,9.0,76,0.00,,,0.05,39,WeatherCatV1.20B785,2013-11-27 18:53:00,
2013-11-27 13:55:00,37.4,30.5,29.65,North,350,7.0,7.0,76,0.00,,,0.05,39,WeatherCatV1.20B785,2013-11-27 18:55:00,
2013-11-27 13:56:00,37.4,30.5,29.65,West,270,4.0,7.0,76,0.00,,,0.05,35,WeatherCatV1.20B785,2013-11-27 18:56:00,
2013-11-27 13:57:00,37.4,30.5,29.65,West,259,3.0,7.0,76,0.00,,,0.05,35,WeatherCatV1.20B785,2013-11-27 18:57:00,
2013-11-27 13:58:00,37.4,30.9,29.66,West,269,3.0,4.0,77,0.00,,,0.05,35,WeatherCatV1.20B785,2013-11-27 18:58:00,
2013-11-27 13:59:00,37.4,30.5,29.66,WSW,254,3.0,4.0,76,0.00,,,0.05,32,WeatherCatV1.20B785,2013-11-27 18:59:00,
2013-11-27 14:01:00,37.4,30.5,29.67,WSW,252,4.0,7.0,76,0.00,,,0.05,30,WeatherCatV1.20B785,2013-11-27 19:01:00,
2013-11-27 14:02:00,37.4,30.5,29.67,WSW,239,9.0,9.0,76,0.00,,,0.05,30,WeatherCatV1.20B785,2013-11-27 19:02:00,
2013-11-27 14:05:00,37.4,30.5,29.67,West,263,7.0,14.0,76,0.00,,,0.05,28,WeatherCatV1.20B785,2013-11-27 19:05:00,
2013-11-27 14:07:00,37.4,30.5,29.67,NW,313,3.0,7.0,76,0.00,,,0.05,26,WeatherCatV1.20B785,2013-11-27 19:07:00,
2013-11-27 14:10:00,37.3,30.8,29.67,WNW,302,3.0,4.0,77,0.00,,,0.05,28,WeatherCatV1.20B785,2013-11-27 19:10:00,
2013-11-27 14:12:00,37.3,31.1,29.67,West,260,3.0,5.0,78,0.00,,,0.05,21,WeatherCatV1.20B785,2013-11-27 19:12:00,
2013-11-27 14:13:00,37.3,30.8,29.67,WSW,252,3.0,5.0,77,0.00,,,0.05,21,WeatherCatV1.20B785,2013-11-27 19:13:00,
2013-11-27 14:15:00,37.1,31.2,29.67,North,356,2.0,6.0,79,0.00,,,0.05,23,WeatherCatV1.20B785,2013-11-27 19:15:00,
2013-11-27 14:16:00,37.1,31.2,29.67,NNW,337,6.0,8.0,79,0.00,,,0.05,23,WeatherCatV1.20B785,2013-11-27 19:16:00,
2013-11-27 14:17:00,37.1,30.6,29.67,WNW,291,4.0,4.0,77,0.00,,,0.05,23,WeatherCatV1.20B785,2013-11-27 19:17:00,
2013-11-27 14:18:00,37.1,30.6,29.68,WNW,287,6.0,6.0,77,0.00,,,0.05,23,WeatherCatV1.20B785,2013-11-27 19:18:00,
2013-11-27 14:20:00,37.0,31.1,29.67,WNW,290,10.0,10.0,79,0.00,,,0.05,35,WeatherCatV1.20B785,2013-11-27 19:20:00,
2013-11-27 14:21:00,36.9,30.7,29.67,West,273,5.0,10.0,78,0.00,,,0.05,35,WeatherCatV1.20B785,2013-11-27 19:21:00,
2013-11-27 14:23:00,36.8,30.9,29.68,WNW,288,4.0,12.0,79,0.00,,,0.05,32,WeatherCatV1.20B785,2013-11-27 19:23:00,
2013-11-27 14:26:00,36.6,31.3,29.68,NW,304,2.0,4.0,81,0.00,,,0.05,37,WeatherCatV1.20B785,2013-11-27 19:26:00,
2013-11-27 14:27:00,36.5,31.2,29.68,NW,304,0.0,3.0,81,0.00,,,0.05,33,WeatherCatV1.20B785,2013-11-27 19:27:00,
2013-11-27 14:28:00,36.5,31.2,29.68,NW,315,1.0,4.0,81,0.00,,,0.05,33,WeatherCatV1.20B785,2013-11-27 19:28:00,
2013-11-27 14:29:00,36.4,31.1,29.68,WNW,300,4.0,6.0,81,0.00,,,0.05,39,WeatherCatV1.20B785,2013-11-27 19:29:00,
2013-11-27 14:31:00,36.2,31.5,29.68,West,281,7.0,7.0,83,0.00,,,0.05,46,WeatherCatV1.20B785,2013-11-27 19:31:00,
2013-11-27 14:32:00,36.2,31.5,29.68,WNW,296,8.0,8.0,83,0.00,,,0.05,46,WeatherCatV1.20B785,2013-11-27 19:32:00,
2013-11-27 14:33:00,36.1,31.1,29.68,West,280,8.0,9.0,82,0.00,,,0.05,44,WeatherCatV1.20B785,2013-11-27 19:33:00,
2013-11-27 14:34:00,36.0,31.4,29.68,NNW,329,5.0,12.0,83,0.00,,,0.05,42,WeatherCatV1.20B785,2013-11-27 19:34:00,
2013-11-27 14:38:00,35.8,31.5,29.69,North,7,3.0,4.0,84,0.00,,,0.05,49,WeatherCatV1.20B785,2013-11-27 19:38:00,
2013-11-27 14:39:00,35.7,31.4,29.69,WNW,298,3.0,4.0,84,0.00,,,0.05,51,WeatherCatV1.20B785,2013-11-27 19:39:00,
2013-11-27 14:43:00,35.6,31.5,29.69,WNW,286,4.0,5.0,85,0.00,,,0.05,33,WeatherCatV1.20B785,2013-11-27 19:43:00,
2013-11-27 14:44:00,35.5,31.5,29.69,NW,320,3.0,5.0,85,0.00,,,0.05,33,WeatherCatV1.20B785,2013-11-27 19:44:00,
2013-11-27 14:45:00,35.5,31.5,29.69,WNW,303,3.0,5.0,85,0.00,,,0.05,33,WeatherCatV1.20B785,2013-11-27 19:45:00,
2013-11-27 14:48:00,35.5,31.5,29.69,WNW,285,0.0,4.0,85,0.00,,,0.05,39,WeatherCatV1.20B785,2013-11-27 19:48:00,
2013-11-27 14:49:00,35.5,31.7,29.69,WNW,291,2.0,4.0,86,0.00,,,0.05,42,WeatherCatV1.20B785,2013-11-27 19:49:00,
2013-11-27 14:50:00,35.4,31.6,29.69,WSW,241,0.0,3.0,86,0.00,,,0.05,42,WeatherCatV1.20B785,2013-11-27 19:50:00,
2013-11-27 14:53:00,35.3,31.5,29.70,West,274,1.0,7.0,86,0.00,,,0.05,54,WeatherCatV1.20B785,2013-11-27 19:53:00,
2013-11-27 14:54:00,35.3,31.5,29.70,NNE,31,1.0,7.0,86,0.00,,,0.05,70,WeatherCatV1.20B785,2013-11-27 19:54:00,
2013-11-27 14:55:00,35.3,31.5,29.70,NNE,31,1.0,2.0,86,0.00,,,0.05,70,WeatherCatV1.20B785,2013-11-27 19:55:00,
2013-11-27 14:57:00,35.3,31.5,29.70,NW,324,4.0,5.0,86,0.00,,,0.05,81,WeatherCatV1.20B785,2013-11-27 19:57:00,
2013-11-27 14:58:00,35.3,31.5,29.70,WNW,293,3.0,5.0,86,0.00,,,0.05,79,WeatherCatV1.20B785,2013-11-27 19:58:00,
2013-11-27 14:59:00,35.3,31.5,29.70,NW,307,3.0,4.0,86,0.00,,,0.05,67,WeatherCatV1.20B785,2013-11-27 19:59:00,
2013-11-27 15:00:00,35.3,31.5,29.70,WNW,294,4.0,4.0,86,0.00,,,0.05,37,WeatherCatV1.20B785,2013-11-27 20:00:00,
2013-11-27 15:02:00,35.3,31.8,29.70,NW,309,2.0,5.0,87,0.00,,,0.05,37,WeatherCatV1.20B785,2013-11-27 20:02:00,
2013-11-27 15:03:00,35.3,31.0,29.71,WNW,300,6.0,11.0,84,0.00,,,0.05,47,WeatherCatV1.20B785,2013-11-27 20:03:00,
2013-11-27 15:04:00,35.3,30.7,29.70,NW,324,4.0,11.0,83,0.00,,,0.05,47,WeatherCatV1.20B785,2013-11-27 20:04:00,
2013-11-27 15:05:00,35.4,30.8,29.71,NW,312,6.0,7.0,83,0.00,,,0.05,51,WeatherCatV1.20B785,2013-11-27 20:05:00,
2013-11-27 15:06:00,35.5,30.6,29.71,WNW,302,9.0,9.0,82,0.00,,,0.05,51,WeatherCatV1.20B785,2013-11-27 20:06:00,
2013-11-27 15:07:00,35.7,30.8,29.71,West,262,5.0,11.0,82,0.00,,,0.05,35,WeatherCatV1.20B785,2013-11-27 20:07:00,
2013-11-27 15:09:00,35.8,30.5,29.71,WNW,292,4.0,11.0,81,0.00,,,0.05,26,WeatherCatV1.20B785,2013-11-27 20:09:00,
2013-11-27 15:10:00,35.9,30.6,29.71,WNW,293,1.0,4.0,81,0.00,,,0.05,21,WeatherCatV1.20B785,2013-11-27 20:10:00,
2013-11-27 15:12:00,35.9,31.0,29.71,NW,320,3.0,7.0,82,0.00,,,0.05,18,WeatherCatV1.20B785,2013-11-27 20:12:00,
2013-11-27 15:14:00,36.0,31.0,29.71,WNW,300,2.0,4.0,82,0.00,,,0.05,19,WeatherCatV1.20B785,2013-11-27 20:14:00,
2013-11-27 15:15:00,36.0,30.8,29.71,West,279,2.0,7.0,81,0.00,,,0.05,26,WeatherCatV1.20B785,2013-11-27 20:15:00,
2013-11-27 15:16:00,36.0,30.8,29.71,West,264,2.0,7.0,81,0.00,,,0.05,26,WeatherCatV1.20B785,2013-11-27 20:16:00,
2013-11-27 15:17:00,36.0,30.8,29.71,WNW,301,4.0,5.0,81,0.00,,,0.05,28,WeatherCatV1.20B785,2013-11-27 20:17:00,
2013-11-27 15:18:00,36.0,30.4,29.71,WNW,287,3.0,5.0,80,0.00,,,0.05,25,WeatherCatV1.20B785,2013-11-27 20:18:00,
2013-11-27 15:19:00,36.0,30.4,29.72,WNW,287,1.0,4.0,80,0.00,,,0.05,23,WeatherCatV1.20B785,2013-11-27 20:19:00,
2013-11-27 15:22:00,36.1,30.5,29.72,WNW,291,0.0,2.0,80,0.00,,,0.05,16,WeatherCatV1.20B785,2013-11-27 20:22:00,
2013-11-27 15:23:00,36.1,30.5,29.72,WNW,303,2.0,2.0,80,0.00,,,0.05,14,WeatherCatV1.20B785,2013-11-27 20:23:00,
2013-11-27 15:24:00,36.1,30.5,29.72,NNW,345,1.0,3.0,80,0.00,,,0.05,12,WeatherCatV1.20B785,2013-11-27 20:24:00,
2013-11-27 15:27:00,36.1,29.9,29.72,NNW,331,3.0,7.0,78,0.00,,,0.05,14,WeatherCatV1.20B785,2013-11-27 20:27:00,
2013-11-27 15:28:00,36.2,29.7,29.72,NW,304,5.0,7.0,77,0.00,,,0.05,14,WeatherCatV1.20B785,2013-11-27 20:28:00,
2013-11-27 15:29:00,36.2,29.7,29.72,NW,304,4.0,4.0,77,0.00,,,0.05,12,WeatherCatV1.20B785,2013-11-27 20:29:00,
2013-11-27 15:33:00,36.3,29.5,29.73,NNW,330,5.0,11.0,76,0.00,,,0.05,11,WeatherCatV1.20B785,2013-11-27 20:33:00,
2013-11-27 15:35:00,36.4,29.2,29.73,West,277,5.0,7.0,75,0.00,,,0.05,11,WeatherCatV1.20B785,2013-11-27 20:35:00,
2013-11-27 15:38:00,36.4,29.6,29.73,WNW,300,9.0,10.0,76,0.00,,,0.05,11,WeatherCatV1.20B785,2013-11-27 20:38:00,
2013-11-27 15:40:00,36.4,29.9,29.73,WNW,293,10.0,11.0,77,0.00,,,0.05,11,WeatherCatV1.20B785,2013-11-27 20:40:00,
2013-11-27 15:43:00,36.2,30.0,29.74,WNW,285,8.0,15.0,78,0.00,,,0.05,11,WeatherCatV1.20B785,2013-11-27 20:43:00,
2013-11-27 15:44:00,36.2,29.7,29.74,NW,312,12.0,21.0,77,0.00,,,0.05,11,WeatherCatV1.20B785,2013-11-27 20:44:00,
2013-11-27 15:45:00,36.1,29.6,29.74,North,356,12.0,21.0,77,0.00,,,0.05,11,WeatherCatV1.20B785,2013-11-27 20:45:00,
2013-11-27 15:46:00,36.1,29.6,29.74,NNW,329,6.0,14.0,77,0.00,,,0.05,11,WeatherCatV1.20B785,2013-11-27 20:46:00,
2013-11-27 15:48:00,36.0,29.8,29.74,NW,304,5.0,8.0,78,0.00,,,0.05,12,WeatherCatV1.20B785,2013-11-27 20:48:00,
2013-11-27 15:49:00,35.9,29.7,29.74,NNW,345,3.0,8.0,78,0.00,,,0.05,11,WeatherCatV1.20B785,2013-11-27 20:49:00,
2013-11-27 15:50:00,35.9,29.7,29.74,West,266,4.0,8.0,78,0.00,,,0.05,12,WeatherCatV1.20B785,2013-11-27 20:50:00,
2013-11-27 15:51:00,35.8,29.9,29.74,WNW,296,5.0,8.0,79,0.00,,,0.05,14,WeatherCatV1.20B785,2013-11-27 20:51:00,
2013-11-27 15:52:00,35.8,29.9,29.74,WNW,285,14.0,14.0,79,0.00,,,0.05,14,WeatherCatV1.20B785,2013-11-27 20:52:00,
2013-11-27 15:54:00,35.6,29.7,29.74,North,0,3.0,14.0,79,0.00,,,0.05,19,WeatherCatV1.20B785,2013-11-27 20:54:00,
2013-11-27 15:55:00,35.6,29.7,29.74,NNW,337,2.0,11.0,79,0.00,,,0.05,19,WeatherCatV1.20B785,2013-11-27 20:55:00,
2013-11-27 15:56:00,35.5,29.3,29.74,WNW,303,3.0,12.0,78,0.00,,,0.05,16,WeatherCatV1.20B785,2013-11-27 20:56:00,
2013-11-27 15:57:00,35.5,29.3,29.74,NW,320,3.0,12.0,78,0.00,,,0.05,16,WeatherCatV1.20B785,2013-11-27 20:57:00,
2013-11-27 15:59:00,35.5,29.6,29.74,NNW,343,4.0,10.0,79,0.00,,,0.05,16,WeatherCatV1.20B785,2013-11-27 20:59:00,
2013-11-27 16:00:00,35.6,29.4,29.74,North,356,3.0,10.0,78,0.00,,,0.05,19,WeatherCatV1.20B785,2013-11-27 21:00:00,
2013-11-27 16:01:00,35.5,29.3,29.75,NW,304,1.0,9.0,78,0.00,,,0.05,19,WeatherCatV1.20B785,2013-11-27 21:01:00,
2013-11-27 16:02:00,35.5,29.6,29.75,NW,306,8.0,9.0,79,0.00,,,0.05,25,WeatherCatV1.20B785,2013-11-27 21:02:00,
2013-11-27 16:05:00,35.6,29.4,29.75,NNW,335,6.0,7.0,78,0.00,,,0.05,25,WeatherCatV1.20B785,2013-11-27 21:05:00,
2013-11-27 16:06:00,35.6,29.4,29.75,NW,312,4.0,7.0,78,0.00,,,0.05,19,WeatherCatV1.20B785,2013-11-27 21:06:00,
2013-11-27 16:07:00,35.6,29.4,29.75,WNW,296,6.0,8.0,78,0.00,,,0.05,18,WeatherCatV1.20B785,2013-11-27 21:07:00,
2013-11-27 16:08:00,35.5,29.0,29.75,NNE,17,3.0,10.0,77,0.00,,,0.05,18,WeatherCatV1.20B785,2013-11-27 21:08:00,
2013-11-27 16:10:00,35.6,28.8,29.76,NW,316,5.0,9.0,76,0.00,,,0.05,16,WeatherCatV1.20B785,2013-11-27 21:10:00,
2013-11-27 16:11:00,35.5,29.0,29.75,WNW,298,3.0,11.0,77,0.00,,,0.05,14,WeatherCatV1.20B785,2013-11-27 21:11:00,
2013-11-27 16:12:00,35.6,29.1,29.75,WNW,302,6.0,11.0,77,0.00,,,0.05,12,WeatherCatV1.20B785,2013-11-27 21:12:00,
2013-11-27 16:14:00,35.5,28.7,29.76,NNW,338,1.0,7.0,76,0.00,,,0.05,11,WeatherCatV1.20B785,2013-11-27 21:14:00,
2013-11-27 16:15:00,35.5,28.7,29.76,WNW,297,2.0,8.0,76,0.00,,,0.05,9,WeatherCatV1.20B785,2013-11-27 21:15:00,
2013-11-27 16:16:00,35.5,28.7,29.76,NW,321,1.0,8.0,76,0.00,,,0.05,7,WeatherCatV1.20B785,2013-11-27 21:16:00,
2013-11-27 16:17:00,35.5,28.7,29.76,NNE,21,6.0,6.0,76,0.00,,,0.05,9,WeatherCatV1.20B785,2013-11-27 21:17:00,
2013-11-27 16:18:00,35.5,29.0,29.76,NNW,334,1.0,6.0,77,0.00,,,0.05,9,WeatherCatV1.20B785,2013-11-27 21:18:00,
2013-11-27 16:19:00,35.4,28.9,29.76,WNW,301,12.0,12.0,77,0.00,,,0.05,12,WeatherCatV1.20B785,2013-11-27 21:19:00,
2013-11-27 16:20:00,35.4,28.6,29.76,NNW,346,8.0,12.0,76,0.00,,,0.05,12,WeatherCatV1.20B785,2013-11-27 21:20:00,
2013-11-27 16:22:00,35.4,28.3,29.76,NNW,333,6.0,10.0,75,0.00,,,0.05,11,WeatherCatV1.20B785,2013-11-27 21:22:00,
2013-11-27 16:23:00,35.3,28.2,29.76,NNW,331,4.0,8.0,75,0.00,,,0.05,9,WeatherCatV1.20B785,2013-11-27 21:23:00,
2013-11-27 16:24:00,35.3,28.2,29.76,NNW,345,12.0,14.0,75,0.00,,,0.05,7,WeatherCatV1.20B785,2013-11-27 21:24:00,
2013-11-27 16:26:00,35.3,27.9,29.76,NW,307,4.0,11.0,74,0.00,,,0.05,5,WeatherCatV1.20B785,2013-11-27 21:26:00,
2013-11-27 16:27:00,35.3,27.9,29.77,NW,324,4.0,6.0,74,0.00,,,0.05,5,WeatherCatV1.20B785,2013-11-27 21:27:00,
2013-11-27 16:28:00,35.3,28.2,29.77,NW,305,10.0,13.0,75,0.00,,,0.05,5,WeatherCatV1.20B785,2013-11-27 21:28:00,
2013-11-27 16:31:00,35.2,28.1,29.77,NNW,327,7.0,8.0,75,0.00,,,0.05,5,WeatherCatV1.20B785,2013-11-27 21:31:00,
2013-11-27 16:32:00,35.2,28.1,29.76,NW,318,2.0,6.0,75,0.00,,,0.05,5,WeatherCatV1.20B785,2013-11-27 21:32:00,
2013-11-27 16:33:00,35.1,28.0,29.77,NNW,344,5.0,7.0,75,0.00,,,0.05,5,WeatherCatV1.20B785,2013-11-27 21:33:00,
2013-11-27 16:36:00,35.1,27.7,29.77,NNE,17,8.0,10.0,74,0.00,,,0.05,5,WeatherCatV1.20B785,2013-11-27 21:36:00,
2013-11-27 16:37:00,35.1,27.7,29.77,WNW,302,4.0,11.0,74,0.00,,,0.05,7,WeatherCatV1.20B785,2013-11-27 21:37:00,
2013-11-27 16:38:00,35.1,28.0,29.77,North,2,5.0,11.0,75,0.00,,,0.05,7,WeatherCatV1.20B785,2013-11-27 21:38:00,
2013-11-27 16:41:00,35.1,27.7,29.77,NNW,335,5.0,10.0,74,0.00,,,0.05,5,WeatherCatV1.20B785,2013-11-27 21:41:00,
2013-11-27 16:42:00,35.1,27.7,29.77,NNW,327,1.0,7.0,74,0.00,,,0.05,5,WeatherCatV1.20B785,2013-11-27 21:42:00,
2013-11-27 16:43:00,35.1,27.7,29.77,NW,305,3.0,7.0,74,0.00,,,0.05,5,WeatherCatV1.20B785,2013-11-27 21:43:00,
2013-11-27 16:44:00,35.1,27.7,29.78,NNE,32,1.0,5.0,74,0.00,,,0.05,5,WeatherCatV1.20B785,2013-11-27 21:44:00,
2013-11-27 16:46:00,35.0,27.9,29.78,NW,307,0.0,4.0,75,0.00,,,0.05,0,WeatherCatV1.20B785,2013-11-27 21:46:00,
2013-11-27 16:47:00,35.0,27.9,29.78,NW,312,5.0,9.0,75,0.00,,,0.05,0,WeatherCatV1.20B785,2013-11-27 21:47:00,
2013-11-27 16:48:00,35.0,27.9,29.78,NNW,345,2.0,9.0,75,0.00,,,0.05,0,WeatherCatV1.20B785,2013-11-27 21:48:00,
2013-11-27 16:49:00,35.0,27.9,29.77,NNE,12,11.0,11.0,75,0.00,,,0.05,0,WeatherCatV1.20B785,2013-11-27 21:49:00,
2013-11-27 16:52:00,34.9,27.5,29.77,WNW,289,5.0,12.0,74,0.00,,,0.05,0,WeatherCatV1.20B785,2013-11-27 21:52:00,
2013-11-27 16:53:00,34.9,27.5,29.77,NW,320,4.0,12.0,74,0.00,,,0.05,0,WeatherCatV1.20B785,2013-11-27 21:53:00,
2013-11-27 16:54:00,34.9,27.8,29.77,WNW,296,7.0,14.0,75,0.00,,,0.05,0,WeatherCatV1.20B785,2013-11-27 21:54:00,
2013-11-27 16:57:00,34.8,27.0,29.78,NW,323,5.0,12.0,73,0.00,,,0.05,0,WeatherCatV1.20B785,2013-11-27 21:57:00,
2013-11-27 16:58:00,34.8,26.7,29.78,NNW,336,3.0,13.0,72,0.00,,,0.05,0,WeatherCatV1.20B785,2013-11-27 21:58:00,
2013-11-27 16:59:00,34.8,26.7,29.78,North,354,3.0,13.0,72,0.00,,,0.05,0,WeatherCatV1.20B785,2013-11-27 21:59:00,
2013-11-27 17:02:00,34.8,26.7,29.79,NNW,341,4.0,10.0,72,0.00,,,0.05,0,WeatherCatV1.20B785,2013-11-27 22:02:00,
2013-11-27 17:04:00,34.8,27.0,29.79,NNW,339,2.0,5.0,73,0.00,,,0.05,0,WeatherCatV1.20B785,2013-11-27 22:04:00,
2013-11-27 17:05:00,34.8,27.0,29.79,WSW,242,3.0,5.0,73,0.00,,,0.05,0,WeatherCatV1.20B785,2013-11-27 22:05:00,
2013-11-27 17:09:00,34.7,26.6,29.79,West,260,4.0,8.0,72,0.00,,,0.05,0,WeatherCatV1.20B785,2013-11-27 22:09:00,
2013-11-27 17:10:00,34.7,26.6,29.79,NW,318,1.0,8.0,72,0.00,,,0.05,0,WeatherCatV1.20B785,2013-11-27 22:10:00,
2013-11-27 17:14:00,34.7,27.0,29.80,West,268,8.0,8.0,73,0.00,,,0.05,0,WeatherCatV1.20B785,2013-11-27 22:14:00,
2013-11-27 17:15:00,34.7,27.0,29.80,WNW,296,6.0,8.0,73,0.00,,,0.05,0,WeatherCatV1.20B785,2013-11-27 22:15:00,
2013-11-27 17:20:00,34.6,27.2,29.80,West,264,5.0,5.0,74,0.00,,,0.05,0,WeatherCatV1.20B785,2013-11-27 22:20:00,
2013-11-27 17:21:00,34.6,27.2,29.81,WSW,253,3.0,6.0,74,0.00,,,0.05,0,WeatherCatV1.20B785,2013-11-27 22:21:00,
2013-11-27 17:25:00,34.5,27.1,29.81,WNW,291,7.0,15.0,74,0.00,,,0.05,0,WeatherCatV1.20B785,2013-11-27 22:25:00,
2013-11-27 17:26:00,34.4,26.7,29.81,WNW,282,9.0,12.0,73,0.00,,,0.05,0,WeatherCatV1.20B785,2013-11-27 22:26:00,
2013-11-27 17:27:00,34.4,26.7,29.81,WSW,237,9.0,16.0,73,0.00,,,0.05,0,WeatherCatV1.20B785,2013-11-27 22:27:00,
2013-11-27 17:30:00,34.3,26.6,29.82,WNW,293,9.0,11.0,73,0.00,,,0.05,0,WeatherCatV1.20B785,2013-11-27 22:30:00,
2013-11-27 17:31:00,34.3,26.6,29.82,WNW,298,4.0,9.0,73,0.00,,,0.05,0,WeatherCatV1.20B785,2013-11-27 22:31:00,
2013-11-27 17:32:00,34.2,26.1,29.82,NNW,346,5.0,9.0,72,0.00,,,0.05,0,WeatherCatV1.20B785,2013-11-27 22:32:00,
2013-11-27 17:35:00,34.1,26.0,29.82,WNW,300,6.0,10.0,72,0.00,,,0.05,0,WeatherCatV1.20B785,2013-11-27 22:35:00,
2013-11-27 17:36:00,34.1,26.0,29.82,NW,305,4.0,10.0,72,0.00,,,0.05,0,WeatherCatV1.20B785,2013-11-27 22:36:00,
2013-11-27 17:37:00,34.1,26.0,29.82,West,273,5.0,10.0,72,0.00,,,0.05,0,WeatherCatV1.20B785,2013-11-27 22:37:00,
2013-11-27 17:38:00,34.0,26.3,29.82,West,279,5.0,10.0,73,0.00,,,0.05,0,WeatherCatV1.20B785,2013-11-27 22:38:00,
2013-11-27 17:41:00,33.9,26.2,29.82,NW,312,5.0,9.0,73,0.00,,,0.05,0,WeatherCatV1.20B785,2013-11-27 22:41:00,
2013-11-27 17:42:00,33.8,26.1,29.83,West,280,4.0,12.0,73,0.00,,,0.05,0,WeatherCatV1.20B785,2013-11-27 22:42:00,
2013-11-27 17:43:00,33.8,26.1,29.83,WSW,246,9.0,12.0,73,0.00,,,0.05,0,WeatherCatV1.20B785,2013-11-27 22:43:00,
2013-11-27 17:46:00,33.7,26.0,29.83,WNW,286,7.0,7.0,73,0.00,,,0.05,0,WeatherCatV1.20B785,2013-11-27 22:46:00,
2013-11-27 17:48:00,33.6,25.9,29.83,WSW,258,8.0,15.0,73,0.00,,,0.05,0,WeatherCatV1.20B785,2013-11-27 22:48:00,
2013-11-27 17:51:00,33.5,25.8,29.83,WSW,253,10.0,14.0,73,0.00,,,0.05,0,WeatherCatV1.20B785,2013-11-27 22:51:00,
2013-11-27 17:55:00,33.3,25.6,29.84,NW,315,4.0,6.0,73,0.00,,,0.05,0,WeatherCatV1.20B785,2013-11-27 22:55:00,
2013-11-27 17:56:00,33.3,25.6,29.84,NW,308,6.0,8.0,73,0.00,,,0.05,0,WeatherCatV1.20B785,2013-11-27 22:56:00,
2013-11-27 17:57:00,33.2,25.5,29.84,NW,311,4.0,8.0,73,0.00,,,0.05,0,WeatherCatV1.20B785,2013-11-27 22:57:00,
2013-11-27 18:00:00,33.1,25.4,29.84,NW,310,7.0,9.0,73,0.00,,,0.05,0,WeatherCatV1.20B785,2013-11-27 23:00:00,
2013-11-27 18:01:00,33.1,25.1,29.84,NW,322,8.0,16.0,72,0.00,,,0.05,0,WeatherCatV1.20B785,2013-11-27 23:01:00,
2013-11-27 18:02:00,33.0,25.0,29.84,WSW,258,18.0,21.0,72,0.00,,,0.05,0,WeatherCatV1.20B785,2013-11-27 23:02:00,
2013-11-27 18:05:00,32.8,24.1,29.84,NW,306,14.0,20.0,70,0.00,,,0.05,0,WeatherCatV1.20B785,2013-11-27 23:05:00,
2013-11-27 18:06:00,32.8,24.1,29.85,WNW,293,16.0,20.0,70,0.00,,,0.05,0,WeatherCatV1.20B785,2013-11-27 23:06:00,
2013-11-27 18:07:00,32.8,24.1,29.85,NW,318,13.0,20.0,70,0.00,,,0.05,0,WeatherCatV1.20B785,2013-11-27 23:07:00,
2013-11-27 18:08:00,32.7,24.0,29.85,WNW,287,14.0,18.0,70,0.00,,,0.05,0,WeatherCatV1.20B785,2013-11-27 23:08:00,
2013-11-27 18:11:00,32.5,23.8,29.85,NW,304,6.0,20.0,70,0.00,,,0.05,0,WeatherCatV1.20B785,2013-11-27 23:11:00,
2013-11-27 18:12:00,32.5,23.8,29.86,WNW,297,6.0,7.0,70,0.00,,,0.05,0,WeatherCatV1.20B785,2013-11-27 23:12:00,
2013-11-27 18:13:00,32.4,24.1,29.85,West,279,13.0,16.0,71,0.00,,,0.05,0,WeatherCatV1.20B785,2013-11-27 23:13:00,
2013-11-27 18:16:00,32.3,24.0,29.86,West,281,3.0,8.0,71,0.00,,,0.05,0,WeatherCatV1.20B785,2013-11-27 23:16:00,
2013-11-27 18:17:00,32.3,24.0,29.86,WNW,302,2.0,5.0,71,0.00,,,0.05,0,WeatherCatV1.20B785,2013-11-27 23:17:00,
2013-11-27 18:18:00,32.2,23.9,29.86,NW,322,3.0,4.0,71,0.00,,,0.05,0,WeatherCatV1.20B785,2013-11-27 23:18:00,
2013-11-27 18:20:00,32.1,23.8,29.86,ESE,102,0.0,2.0,71,0.00,,,0.05,0,WeatherCatV1.20B785,2013-11-27 23:20:00,
2013-11-27 18:21:00,32.1,23.8,29.86,NW,315,3.0,4.0,71,0.00,,,0.05,0,WeatherCatV1.20B785,2013-11-27 23:21:00,
2013-11-27 18:22:00,32.1,23.8,29.86,West,275,3.0,4.0,71,0.00,,,0.05,0,WeatherCatV1.20B785,2013-11-27 23:22:00,
2013-11-27 18:23:00,32.1,23.8,29.86,West,262,3.0,4.0,71,0.00,,,0.05,0,WeatherCatV1.20B785,2013-11-27 23:23:00,
2013-11-27 18:25:00,32.0,24.0,29.86,West,266,5.0,8.0,72,0.00,,,0.05,0,WeatherCatV1.20B785,2013-11-27 23:25:00,
2013-11-27 18:27:00,31.9,23.9,29.86,NW,323,6.0,13.0,72,0.00,,,0.05,0,WeatherCatV1.20B785,2013-11-27 23:27:00,
2013-11-27 18:28:00,31.9,23.2,29.87,NW,323,7.0,12.0,70,0.00,,,0.05,0,WeatherCatV1.20B785,2013-11-27 23:28:00,
2013-11-27 18:30:00,31.8,23.5,29.86,NW,306,6.0,8.0,71,0.00,,,0.05,0,WeatherCatV1.20B785,2013-11-27 23:30:00,
2013-11-27 18:32:00,31.7,22.7,29.87,NW,306,13.0,21.0,69,0.00,,,0.05,0,WeatherCatV1.20B785,2013-11-27 23:32:00,
2013-11-27 18:33:00,31.7,22.7,29.87,WNW,295,6.0,21.0,69,0.00,,,0.05,0,WeatherCatV1.20B785,2013-11-27 23:33:00,
2013-11-27 18:34:00,31.7,22.7,29.87,WNW,283,5.0,21.0,69,0.00,,,0.05,0,WeatherCatV1.20B785,2013-11-27 23:34:00,
2013-11-27 18:35:00,31.7,22.7,29.87,West,260,3.0,6.0,69,0.00,,,0.05,0,WeatherCatV1.20B785,2013-11-27 23:35:00,
2013-11-27 18:37:00,31.6,22.3,29.88,WSW,239,9.0,11.0,68,0.00,,,0.05,0,WeatherCatV1.20B785,2013-11-27 23:37:00,
2013-11-27 18:38:00,31.7,22.4,29.87,West,276,5.0,11.0,68,0.00,,,0.05,0,WeatherCatV1.20B785,2013-11-27 23:38:00,
2013-11-27 18:39:00,31.6,22.3,29.87,WNW,296,5.0,10.0,68,0.00,,,0.05,0,WeatherCatV1.20B785,2013-11-27 23:39:00,
2013-11-27 18:41:00,31.6,23.0,29.88,WNW,300,9.0,11.0,70,0.00,,,0.05,0,WeatherCatV1.20B785,2013-11-27 23:41:00,
2013-11-27 18:43:00,31.6,22.3,29.87,NW,313,11.0,15.0,68,0.00,,,0.05,0,WeatherCatV1.20B785,2013-11-27 23:43:00,
2013-11-27 18:44:00,31.5,22.2,29.88,NW,312,5.0,15.0,68,0.00,,,0.05,0,WeatherCatV1.20B785,2013-11-27 23:44:00,
2013-11-27 18:45:00,31.5,22.2,29.88,NNW,329,4.0,9.0,68,0.00,,,0.05,0,WeatherCatV1.20B785,2013-11-27 23:45:00,
2013-11-27 18:46:00,31.5,22.2,29.88,NW,306,7.0,9.0,68,0.00,,,0.05,0,WeatherCatV1.20B785,2013-11-27 23:46:00,
2013-11-27 18:47:00,31.5,22.2,29.88,West,280,5.0,8.0,68,0.00,,,0.05,0,WeatherCatV1.20B785,2013-11-27 23:47:00,
2013-11-27 18:48:00,31.5,22.5,29.88,NW,314,9.0,11.0,69,0.00,,,0.05,0,WeatherCatV1.20B785,2013-11-27 23:48:00,
2013-11-27 18:49:00,31.5,22.5,29.88,West,279,12.0,16.0,69,0.00,,,0.05,0,WeatherCatV1.20B785,2013-11-27 23:49:00,
2013-11-27 18:50:00,31.5,22.5,29.88,West,279,12.0,16.0,69,0.00,,,0.05,0,WeatherCatV1.20B785,2013-11-27 23:50:00,
2013-11-27 18:51:00,31.4,22.4,29.88,WNW,291,11.0,17.0,69,0.00,,,0.05,0,WeatherCatV1.20B785,2013-11-27 23:51:00,
2013-11-27 18:52:00,31.4,22.4,29.88,WNW,298,13.0,17.0,69,0.00,,,0.05,0,WeatherCatV1.20B785,2013-11-27 23:52:00,
2013-11-27 18:53:00,31.4,22.4,29.88,WNW,301,7.0,13.0,69,0.00,,,0.05,0,WeatherCatV1.20B785,2013-11-27 23:53:00,
2013-11-27 18:54:00,31.4,22.1,29.88,WNW,302,8.0,13.0,68,0.00,,,0.05,0,WeatherCatV1.20B785,2013-11-27 23:54:00,
2013-11-27 18:55:00,31.4,22.1,29.88,NW,313,7.0,9.0,68,0.00,,,0.05,0,WeatherCatV1.20B785,2013-11-27 23:55:00,
2013-11-27 18:57:00,31.4,22.4,29.89,WNW,299,6.0,19.0,69,0.00,,,0.05,0,WeatherCatV1.20B785,2013-11-27 23:57:00,
2013-11-27 18:58:00,31.4,22.4,29.89,WNW,293,6.0,19.0,69,0.00,,,0.05,0,WeatherCatV1.20B785,2013-11-27 23:58:00,
2013-11-27 18:59:00,31.4,22.4,29.89,NW,314,8.0,11.0,69,0.00,,,0.05,0,WeatherCatV1.20B785,2013-11-27 23:59:00,
2013-11-27 19:00:00,31.3,22.3,29.89,WNW,294,8.0,9.0,69,0.00,,,0.05,0,WeatherCatV1.20B785,2013-11-28 00:00:00,
2013-11-27 19:01:00,31.3,22.3,29.89,NW,309,9.0,13.0,69,0.00,,,0.05,0,WeatherCatV1.20B785,2013-11-28 00:01:00,
2013-11-27 19:02:00,31.3,22.3,29.89,WNW,289,5.0,13.0,69,0.00,,,0.05,0,WeatherCatV1.20B785,2013-11-28 00:02:00,
2013-11-27 19:03:00,31.3,22.3,29.89,WNW,293,7.0,11.0,69,0.00,,,0.05,0,WeatherCatV1.20B785,2013-11-28 00:03:00,
2013-11-27 19:04:00,31.3,22.3,29.89,NW,306,7.0,11.0,69,0.00,,,0.05,0,WeatherCatV1.20B785,2013-11-28 00:04:00,
2013-11-27 19:05:00,31.2,22.6,29.89,NNE,17,1.0,7.0,70,0.00,,,0.05,0,WeatherCatV1.20B785,2013-11-28 00:05:00,
2013-11-27 19:07:00,31.3,22.3,29.89,WSW,247,9.0,11.0,69,0.00,,,0.05,0,WeatherCatV1.20B785,2013-11-28 00:07:00,
2013-11-27 19:09:00,31.2,22.2,29.90,WSW,252,5.0,18.0,69,0.00,,,0.05,0,WeatherCatV1.20B785,2013-11-28 00:09:00,
2013-11-27 19:10:00,31.2,22.2,29.90,NW,308,13.0,17.0,69,0.00,,,0.05,0,WeatherCatV1.20B785,2013-11-28 00:10:00,
2013-11-27 19:11:00,31.2,21.9,29.90,North,7,6.0,17.0,68,0.00,,,0.05,0,WeatherCatV1.20B785,2013-11-28 00:11:00,
2013-11-27 19:12:00,31.2,22.2,29.90,WNW,302,3.0,17.0,69,0.00,,,0.05,0,WeatherCatV1.20B785,2013-11-28 00:12:00,
2013-11-27 19:13:00,31.2,22.2,29.90,WNW,289,3.0,7.0,69,0.00,,,0.05,0,WeatherCatV1.20B785,2013-11-28 00:13:00,
2013-11-27 19:14:00,31.2,21.9,29.90,North,2,1.0,7.0,68,0.00,,,0.05,0,WeatherCatV1.20B785,2013-11-28 00:14:00,
2013-11-27 19:15:00,31.2,22.2,29.90,WSW,257,0.0,3.0,69,0.00,,,0.05,0,WeatherCatV1.20B785,2013-11-28 00:15:00,
2013-11-27 19:16:00,31.2,22.2,29.90,WNW,299,3.0,4.0,69,0.00,,,0.05,0,WeatherCatV1.20B785,2013-11-28 00:16:00,
2013-11-27 19:19:00,31.1,22.1,29.90,NW,315,5.0,5.0,69,0.00,,,0.05,0,WeatherCatV1.20B785,2013-11-28 00:19:00,
2013-11-27 19:20:00,31.1,22.1,29.90,NW,317,8.0,8.0,69,0.00,,,0.05,0,WeatherCatV1.20B785,2013-11-28 00:20:00,
2013-11-27 19:21:00,31.1,22.1,29.90,NW,312,11.0,14.0,69,0.00,,,0.05,0,WeatherCatV1.20B785,2013-11-28 00:21:00,
2013-11-27 19:24:00,31.1,21.8,29.91,SW,229,6.0,10.0,68,0.00,,,0.05,0,WeatherCatV1.20B785,2013-11-28 00:24:00,
2013-11-27 19:25:00,31.0,21.7,29.91,WSW,243,8.0,10.0,68,0.00,,,0.05,0,WeatherCatV1.20B785,2013-11-28 00:25:00,
2013-11-27 19:26:00,31.0,21.7,29.90,WSW,250,5.0,13.0,68,0.00,,,0.05,0,WeatherCatV1.20B785,2013-11-28 00:26:00,
2013-11-27 19:30:00,30.9,21.6,29.91,NW,306,9.0,17.0,68,0.00,,,0.05,0,WeatherCatV1.20B785,2013-11-28 00:30:00,
2013-11-27 19:31:00,30.9,21.6,29.91,NNW,327,7.0,17.0,68,0.00,,,0.05,0,WeatherCatV1.20B785,2013-11-28 00:31:00,
2013-11-27 19:35:00,30.8,20.4,29.91,WNW,297,8.0,21.0,65,0.00,,,0.05,0,WeatherCatV1.20B785,2013-11-28 00:35:00,
2013-11-27 19:36:00,30.8,20.4,29.91,West,261,6.0,21.0,65,0.00,,,0.05,0,WeatherCatV1.20B785,2013-11-28 00:36:00,
2013-11-27 19:37:00,30.8,20.8,29.92,WNW,298,8.0,15.0,66,0.00,,,0.05,0,WeatherCatV1.20B785,2013-11-28 00:37:00,
2013-11-27 19:41:00,30.7,20.7,29.92,NW,317,8.0,12.0,66,0.00,,,0.05,0,WeatherCatV1.20B785,2013-11-28 00:41:00,
2013-11-27 19:42:00,30.7,21.1,29.92,NW,325,3.0,12.0,67,0.00,,,0.05,0,WeatherCatV1.20B785,2013-11-28 00:42:00,
2013-11-27 19:46:00,30.6,20.6,29.92,WNW,285,13.0,18.0,66,0.00,,,0.05,0,WeatherCatV1.20B785,2013-11-28 00:46:00,
2013-11-27 19:47:00,30.5,20.5,29.92,West,278,17.0,18.0,66,0.00,,,0.05,0,WeatherCatV1.20B785,2013-11-28 00:47:00,
2013-11-27 19:48:00,30.5,20.5,29.92,WNW,296,10.0,18.0,66,0.00,,,0.05,0,WeatherCatV1.20B785,2013-11-28 00:48:00,
2013-11-27 19:51:00,30.5,20.9,29.93,NW,305,15.0,20.0,67,0.00,,,0.05,0,WeatherCatV1.20B785,2013-11-28 00:51:00,
2013-11-27 19:52:00,30.5,20.9,29.93,WNW,299,5.0,20.0,67,0.00,,,0.05,0,WeatherCatV1.20B785,2013-11-28 00:52:00,
2013-11-27 19:53:00,30.4,20.8,29.93,NW,310,7.0,20.0,67,0.00,,,0.05,0,WeatherCatV1.20B785,2013-11-28 00:53:00,
2013-11-27 19:56:00,30.3,21.0,29.94,WNW,290,8.0,10.0,68,0.00,,,0.05,0,WeatherCatV1.20B785,2013-11-28 00:56:00,
2013-11-27 19:57:00,30.3,21.0,29.94,WNW,296,10.0,16.0,68,0.00,,,0.05,0,WeatherCatV1.20B785,2013-11-28 00:57:00,
2013-11-27 19:58:00,30.3,20.7,29.94,West,273,9.0,18.0,67,0.00,,,0.05,0,WeatherCatV1.20B785,2013-11-28 00:58:00,
2013-11-27 20:02:00,30.1,20.5,29.94,WNW,290,7.0,10.0,67,0.00,,,0.05,0,WeatherCatV1.20B785,2013-11-28 01:02:00,
2013-11-27 20:03:00,30.1,20.5,29.94,West,266,3.0,10.0,67,0.00,,,0.05,0,WeatherCatV1.20B785,2013-11-28 01:03:00,
2013-11-27 20:07:00,29.9,20.3,29.94,WNW,283,5.0,15.0,67,0.00,,,0.05,0,WeatherCatV1.20B785,2013-11-28 01:07:00,
2013-11-27 20:08:00,29.9,20.3,29.94,NW,304,2.0,15.0,67,0.00,,,0.05,0,WeatherCatV1.20B785,2013-11-28 01:08:00,
2013-11-27 20:09:00,29.9,20.3,29.94,West,272,4.0,7.0,67,0.00,,,0.05,0,WeatherCatV1.20B785,2013-11-28 01:09:00,
2013-11-27 20:13:00,29.9,19.2,29.94,NW,307,6.0,18.0,64,0.00,,,0.05,0,WeatherCatV1.20B785,2013-11-28 01:13:00,
2013-11-27 20:14:00,29.9,19.6,29.94,WNW,302,10.0,18.0,65,0.00,,,0.05,0,WeatherCatV1.20B785,2013-11-28 01:14:00,
2013-11-27 20:18:00,29.9,19.2,29.95,West,277,12.0,16.0,64,0.00,,,0.05,0,WeatherCatV1.20B785,2013-11-28 01:18:00,
2013-11-27 20:19:00,29.8,19.1,29.95,WNW,297,7.0,16.0,64,0.00,,,0.05,0,WeatherCatV1.20B785,2013-11-28 01:19:00,
2013-11-27 20:23:00,29.8,19.5,29.95,NNW,334,7.0,8.0,65,0.00,,,0.05,0,WeatherCatV1.20B785,2013-11-28 01:23:00,
2013-11-27 20:24:00,29.8,19.5,29.95,WNW,295,7.0,10.0,65,0.00,,,0.05,0,WeatherCatV1.20B785,2013-11-28 01:24:00,
2013-11-27 20:25:00,29.7,19.4,29.95,WSW,246,10.0,10.0,65,0.00,,,0.05,0,WeatherCatV1.20B785,2013-11-28 01:25:00,
2013-11-27 20:29:00,29.6,19.7,29.95,NW,312,5.0,9.0,66,0.00,,,0.05,0,WeatherCatV1.20B785,2013-11-28 01:29:00,
2013-11-27 20:30:00,29.6,19.7,29.95,West,281,2.0,9.0,66,0.00,,,0.05,0,WeatherCatV1.20B785,2013-11-28 01:30:00,
2013-11-27 20:34:00,29.4,20.2,29.96,NW,306,14.0,14.0,68,0.00,,,0.05,0,WeatherCatV1.20B785,2013-11-28 01:34:00,
2013-11-27 20:35:00,29.3,20.1,29.95,WSW,241,5.0,14.0,68,0.00,,,0.05,0,WeatherCatV1.20B785,2013-11-28 01:35:00,
2013-11-27 20:36:00,29.3,20.1,29.95,WSW,252,7.0,14.0,68,0.00,,,0.05,0,WeatherCatV1.20B785,2013-11-28 01:36:00,
2013-11-27 20:39:00,28.9,19.0,29.95,West,271,7.0,17.0,66,0.00,,,0.05,0,WeatherCatV1.20B785,2013-11-28 01:39:00,
2013-11-27 20:40:00,28.9,19.3,29.95,West,263,9.0,17.0,67,0.00,,,0.05,0,WeatherCatV1.20B785,2013-11-28 01:40:00,
2013-11-27 20:41:00,28.8,18.9,29.95,West,271,12.0,15.0,66,0.00,,,0.05,0,WeatherCatV1.20B785,2013-11-28 01:41:00,
2013-11-27 20:42:00,28.8,18.5,29.95,West,271,11.0,16.0,65,0.00,,,0.05,0,WeatherCatV1.20B785,2013-11-28 01:42:00,
2013-11-27 20:44:00,28.7,18.1,29.95,WSW,252,3.0,7.0,64,0.00,,,0.05,0,WeatherCatV1.20B785,2013-11-28 01:44:00,
2013-11-27 20:45:00,28.6,18.0,29.95,WNW,289,6.0,7.0,64,0.00,,,0.05,0,WeatherCatV1.20B785,2013-11-28 01:45:00,
2013-11-27 20:46:00,28.6,18.0,29.95,West,275,8.0,9.0,64,0.00,,,0.05,0,WeatherCatV1.20B785,2013-11-28 01:46:00,
2013-11-27 20:47:00,28.6,18.0,29.95,WSW,250,4.0,9.0,64,0.00,,,0.05,0,WeatherCatV1.20B785,2013-11-28 01:47:00,
2013-11-27 20:50:00,28.5,18.2,29.95,WSW,258,7.0,7.0,65,0.00,,,0.05,0,WeatherCatV1.20B785,2013-11-28 01:50:00,
2013-11-27 20:51:00,28.5,17.9,29.95,WSW,246,6.0,7.0,64,0.00,,,0.05,0,WeatherCatV1.20B785,2013-11-28 01:51:00,
2013-11-27 20:53:00,28.5,17.9,29.96,WNW,301,14.0,17.0,64,0.00,,,0.05,0,WeatherCatV1.20B785,2013-11-28 01:53:00,
2013-11-27 20:55:00,28.5,17.2,29.96,NW,312,6.0,16.0,62,0.00,,,0.05,0,WeatherCatV1.20B785,2013-11-28 01:55:00,
2013-11-27 20:56:00,28.5,17.2,29.96,North,7,3.0,12.0,62,0.00,,,0.05,0,WeatherCatV1.20B785,2013-11-28 01:56:00,
2013-11-27 20:57:00,28.5,17.2,29.96,WNW,283,6.0,10.0,62,0.00,,,0.05,0,WeatherCatV1.20B785,2013-11-28 01:57:00,
2013-11-27 20:58:00,28.5,17.5,29.96,West,271,5.0,10.0,63,0.00,,,0.05,0,WeatherCatV1.20B785,2013-11-28 01:58:00,
2013-11-27 21:00:00,28.5,17.2,29.96,WNW,283,10.0,12.0,62,0.00,,,0.05,0,WeatherCatV1.20B785,2013-11-28 02:00:00,
2013-11-27 21:02:00,28.5,16.4,29.97,WSW,245,9.0,12.0,60,0.00,,,0.05,0,WeatherCatV1.20B785,2013-11-28 02:02:00,
2013-11-27 21:03:00,28.5,16.4,29.96,West,281,9.0,13.0,60,0.00,,,0.05,0,WeatherCatV1.20B785,2013-11-28 02:03:00,
2013-11-27 21:06:00,28.5,16.8,29.97,West,268,4.0,8.0,61,0.00,,,0.05,0,WeatherCatV1.20B785,2013-11-28 02:06:00,
2013-11-27 21:07:00,28.4,16.7,29.97,WNW,288,11.0,11.0,61,0.00,,,0.05,0,WeatherCatV1.20B785,2013-11-28 02:07:00,
2013-11-27 21:08:00,28.4,16.3,29.97,WNW,300,7.0,11.0,60,0.00,,,0.05,0,WeatherCatV1.20B785,2013-11-28 02:08:00,
2013-11-27 21:09:00,28.4,16.3,29.97,WSW,258,4.0,11.0,60,0.00,,,0.05,0,WeatherCatV1.20B785,2013-11-28 02:09:00,
2013-11-27 21:11:00,28.3,16.2,29.97,West,268,2.0,12.0,60,0.00,,,0.05,0,WeatherCatV1.20B785,2013-11-28 02:11:00,
2013-11-27 21:13:00,28.3,16.2,29.97,WNW,287,5.0,8.0,60,0.00,,,0.05,0,WeatherCatV1.20B785,2013-11-28 02:13:00,
2013-11-27 21:14:00,28.3,16.6,29.97,NW,315,6.0,9.0,61,0.00,,,0.05,0,WeatherCatV1.20B785,2013-11-28 02:14:00,
2013-11-27 21:16:00,28.2,16.1,29.97,WNW,282,8.0,16.0,60,0.00,,,0.05,0,WeatherCatV1.20B785,2013-11-28 02:16:00,
2013-11-27 21:18:00,28.2,16.1,29.97,NE,43,4.0,16.0,60,0.00,,,0.05,0,WeatherCatV1.20B785,2013-11-28 02:18:00,
2013-11-27 21:19:00,28.1,15.6,29.97,WNW,302,5.0,16.0,59,0.00,,,0.05,0,WeatherCatV1.20B785,2013-11-28 02:19:00,
2013-11-27 21:21:00,28.1,16.0,29.97,WSW,248,9.0,11.0,60,0.00,,,0.05,0,WeatherCatV1.20B785,2013-11-28 02:21:00,
2013-11-27 21:23:00,28.1,16.4,29.97,WNW,290,9.0,14.0,61,0.00,,,0.05,0,WeatherCatV1.20B785,2013-11-28 02:23:00,
2013-11-27 21:24:00,28.0,15.9,29.97,WNW,283,4.0,14.0,60,0.00,,,0.05,0,WeatherCatV1.20B785,2013-11-28 02:24:00,
2013-11-27 21:26:00,28.0,15.9,29.98,NW,314,10.0,12.0,60,0.00,,,0.05,0,WeatherCatV1.20B785,2013-11-28 02:26:00,
2013-11-27 21:28:00,28.0,15.6,29.98,NW,312,9.0,18.0,59,0.00,,,0.05,0,WeatherCatV1.20B785,2013-11-28 02:28:00,
2013-11-27 21:29:00,28.0,15.9,29.98,West,260,11.0,18.0,60,0.00,,,0.05,0,WeatherCatV1.20B785,2013-11-28 02:29:00,
2013-11-27 21:30:00,28.0,15.6,29.98,West,264,10.0,18.0,59,0.00,,,0.05,0,WeatherCatV1.20B785,2013-11-28 02:30:00,
2013-11-27 21:32:00,28.0,15.6,29.99,West,277,8.0,11.0,59,0.00,,,0.05,0,WeatherCatV1.20B785,2013-11-28 02:32:00,
2013-11-27 21:35:00,28.0,15.6,29.99,WNW,283,6.0,14.0,59,0.00,,,0.05,0,WeatherCatV1.20B785,2013-11-28 02:35:00,
2013-11-27 21:36:00,28.0,15.9,29.98,West,263,6.0,8.0,60,0.00,,,0.05,0,WeatherCatV1.20B785,2013-11-28 02:36:00,
2013-11-27 21:37:00,28.0,15.9,29.99,West,269,8.0,12.0,60,0.00,,,0.05,0,WeatherCatV1.20B785,2013-11-28 02:37:00,
2013-11-27 21:40:00,27.9,16.2,29.99,WSW,244,4.0,10.0,61,0.00,,,0.05,0,WeatherCatV1.20B785,2013-11-28 02:40:00,
2013-11-27 21:41:00,27.9,16.2,29.99,WSW,258,4.0,10.0,61,0.00,,,0.05,0,WeatherCatV1.20B785,2013-11-28 02:41:00,
2013-11-27 21:43:00,27.8,16.1,30.00,WSW,258,3.0,7.0,61,0.00,,,0.05,0,WeatherCatV1.20B785,2013-11-28 02:43:00,
2013-11-27 21:45:00,27.8,16.1,30.00,West,272,6.0,6.0,61,0.00,,,0.05,0,WeatherCatV1.20B785,2013-11-28 02:45:00,
2013-11-27 21:46:00,27.8,16.1,30.00,West,272,6.0,6.0,61,0.00,,,0.05,0,WeatherCatV1.20B785,2013-11-28 02:46:00,
2013-11-27 21:47:00,27.7,16.0,30.00,NW,308,2.0,6.0,61,0.00,,,0.05,0,WeatherCatV1.20B785,2013-11-28 02:47:00,
2013-11-27 21:48:00,27.6,15.9,30.00,WNW,295,4.0,5.0,61,0.00,,,0.05,0,WeatherCatV1.20B785,2013-11-28 02:48:00,
2013-11-27 21:51:00,27.6,15.9,30.01,WSW,256,3.0,9.0,61,0.00,,,0.05,0,WeatherCatV1.20B785,2013-11-28 02:51:00,
2013-11-27 21:52:00,27.6,15.6,30.01,West,263,3.0,9.0,60,0.00,,,0.05,0,WeatherCatV1.20B785,2013-11-28 02:52:00,
2013-11-27 21:53:00,27.6,15.9,30.00,NW,314,15.0,15.0,61,0.00,,,0.05,0,WeatherCatV1.20B785,2013-11-28 02:53:00,
2013-11-27 21:56:00,27.6,15.9,30.00,WNW,284,2.0,10.0,61,0.00,,,0.05,0,WeatherCatV1.20B785,2013-11-28 02:56:00,
2013-11-27 21:57:00,27.6,15.9,30.00,WNW,291,3.0,7.0,61,0.00,,,0.05,0,WeatherCatV1.20B785,2013-11-28 02:57:00,
2013-11-27 21:58:00,27.6,15.9,30.01,NW,306,2.0,5.0,61,0.00,,,0.05,0,WeatherCatV1.20B785,2013-11-28 02:58:00,
2013-11-27 22:01:00,27.5,15.8,30.01,West,281,5.0,8.0,61,0.00,,,0.05,0,WeatherCatV1.20B785,2013-11-28 03:01:00,
2013-11-27 22:02:00,27.5,15.8,30.01,NW,304,6.0,10.0,61,0.00,,,0.05,0,WeatherCatV1.20B785,2013-11-28 03:02:00,
2013-11-27 22:03:00,27.5,15.8,30.01,WSW,248,9.0,18.0,61,0.00,,,0.05,0,WeatherCatV1.20B785,2013-11-28 03:03:00,
2013-11-27 22:04:00,27.5,15.8,30.01,WNW,299,6.0,18.0,61,0.00,,,0.05,0,WeatherCatV1.20B785,2013-11-28 03:04:00,
2013-11-27 22:06:00,27.5,15.8,30.01,WNW,284,5.0,12.0,61,0.00,,,0.05,0,WeatherCatV1.20B785,2013-11-28 03:06:00,
2013-11-27 22:07:00,27.6,16.3,30.01,WNW,287,10.0,10.0,62,0.00,,,0.05,0,WeatherCatV1.20B785,2013-11-28 03:07:00,
2013-11-27 22:08:00,27.6,16.3,30.01,WSW,243,8.0,11.0,62,0.00,,,0.05,0,WeatherCatV1.20B785,2013-11-28 03:08:00,
2013-11-27 22:09:00,27.6,16.3,30.01,West,271,5.0,11.0,62,0.00,,,0.05,0,WeatherCatV1.20B785,2013-11-28 03:09:00,
2013-11-27 22:11:00,27.6,16.3,30.01,WNW,298,12.0,14.0,62,0.00,,,0.05,0,WeatherCatV1.20B785,2013-11-28 03:11:00,
2013-11-27 22:12:00,27.6,16.3,30.01,West,265,13.0,14.0,62,0.00,,,0.05,0,WeatherCatV1.20B785,2013-11-28 03:12:00,
2013-11-27 22:14:00,27.6,16.3,30.01,WNW,291,6.0,10.0,62,0.00,,,0.05,0,WeatherCatV1.20B785,2013-11-28 03:14:00,
2013-11-27 22:15:00,27.6,16.7,30.01,NW,320,11.0,16.0,63,0.00,,,0.05,0,WeatherCatV1.20B785,2013-11-28 03:15:00,
2013-11-27 22:16:00,27.6,15.9,30.01,NW,305,7.0,16.0,61,0.00,,,0.05,0,WeatherCatV1.20B785,2013-11-28 03:16:00,
2013-11-27 22:17:00,27.7,16.0,30.02,NW,313,7.0,12.0,61,0.00,,,0.05,0,WeatherCatV1.20B785,2013-11-28 03:17:00,
2013-11-27 22:19:00,27.7,16.0,30.02,West,279,6.0,14.0,61,0.00,,,0.05,0,WeatherCatV1.20B785,2013-11-28 03:19:00,
2013-11-27 22:20:00,27.8,16.5,30.02,WSW,247,8.0,9.0,62,0.00,,,0.05,0,WeatherCatV1.20B785,2013-11-28 03:20:00,
2013-11-27 22:22:00,27.8,16.1,30.02,WSW,250,8.0,17.0,61,0.00,,,0.05,0,WeatherCatV1.20B785,2013-11-28 03:22:00,
2013-11-27 22:24:00,27.8,16.1,30.02,WNW,289,7.0,10.0,61,0.00,,,0.05,0,WeatherCatV1.20B785,2013-11-28 03:24:00,
2013-11-27 22:25:00,27.8,16.1,30.02,WSW,254,5.0,10.0,61,0.00,,,0.05,0,WeatherCatV1.20B785,2013-11-28 03:25:00,
2013-11-27 22:27:00,27.8,16.1,30.02,West,267,10.0,14.0,61,0.00,,,0.05,0,WeatherCatV1.20B785,2013-11-28 03:27:00,
2013-11-27 22:29:00,27.8,16.1,30.02,WNW,293,8.0,12.0,61,0.00,,,0.05,0,WeatherCatV1.20B785,2013-11-28 03:29:00,
2013-11-27 22:30:00,27.8,16.1,30.02,West,264,10.0,11.0,61,0.00,,,0.05,0,WeatherCatV1.20B785,2013-11-28 03:30:00,
2013-11-27 22:32:00,27.8,16.5,30.02,WNW,289,10.0,11.0,62,0.00,,,0.05,0,WeatherCatV1.20B785,2013-11-28 03:32:00,
2013-11-27 22:34:00,27.8,15.7,30.03,West,273,10.0,16.0,60,0.00,,,0.05,0,WeatherCatV1.20B785,2013-11-28 03:34:00,
2013-11-27 22:35:00,27.8,15.7,30.03,West,269,10.0,16.0,60,0.00,,,0.05,0,WeatherCatV1.20B785,2013-11-28 03:35:00,
2013-11-27 22:36:00,27.8,16.1,30.03,WNW,285,11.0,16.0,61,0.00,,,0.05,0,WeatherCatV1.20B785,2013-11-28 03:36:00,
2013-11-27 22:37:00,27.8,16.1,30.03,West,271,5.0,13.0,61,0.00,,,0.05,0,WeatherCatV1.20B785,2013-11-28 03:37:00,
2013-11-27 22:38:00,27.8,15.7,30.03,WNW,282,9.0,12.0,60,0.00,,,0.05,0,WeatherCatV1.20B785,2013-11-28 03:38:00,
2013-11-27 22:40:00,27.9,15.8,30.03,WSW,249,10.0,12.0,60,0.00,,,0.05,0,WeatherCatV1.20B785,2013-11-28 03:40:00,
2013-11-27 22:41:00,27.9,15.8,30.03,WSW,253,3.0,17.0,60,0.00,,,0.05,0,WeatherCatV1.20B785,2013-11-28 03:41:00,
2013-11-27 22:42:00,27.9,15.8,30.03,WSW,242,3.0,7.0,60,0.00,,,0.05,0,WeatherCatV1.20B785,2013-11-28 03:42:00,
2013-11-27 22:43:00,27.9,15.8,30.03,West,260,4.0,8.0,60,0.00,,,0.05,0,WeatherCatV1.20B785,2013-11-28 03:43:00,
2013-11-27 22:45:00,27.9,15.8,30.03,WSW,250,9.0,16.0,60,0.00,,,0.05,0,WeatherCatV1.20B785,2013-11-28 03:45:00,
2013-11-27 22:46:00,27.9,15.8,30.03,WSW,258,7.0,16.0,60,0.00,,,0.05,0,WeatherCatV1.20B785,2013-11-28 03:46:00,
2013-11-27 22:47:00,27.9,15.8,30.04,West,263,3.0,12.0,60,0.00,,,0.05,0,WeatherCatV1.20B785,2013-11-28 03:47:00,
2013-11-27 22:48:00,27.9,15.8,30.04,West,264,2.0,6.0,60,0.00,,,0.05,0,WeatherCatV1.20B785,2013-11-28 03:48:00,
2013-11-27 22:50:00,27.9,16.6,30.04,WNW,302,11.0,12.0,62,0.00,,,0.05,0,WeatherCatV1.20B785,2013-11-28 03:50:00,
2013-11-27 22:51:00,27.9,16.6,30.04,West,275,4.0,12.0,62,0.00,,,0.05,0,WeatherCatV1.20B785,2013-11-28 03:51:00,
2013-11-27 22:52:00,27.8,15.7,30.04,WNW,301,7.0,12.0,60,0.00,,,0.05,0,WeatherCatV1.20B785,2013-11-28 03:52:00,
2013-11-27 22:54:00,27.8,16.1,30.04,WNW,299,2.0,8.0,61,0.00,,,0.05,0,WeatherCatV1.20B785,2013-11-28 03:54:00,
2013-11-27 22:55:00,27.8,16.1,30.04,WNW,291,4.0,11.0,61,0.00,,,0.05,0,WeatherCatV1.20B785,2013-11-28 03:55:00,
2013-11-27 22:57:00,27.8,15.7,30.04,WNW,289,4.0,7.0,60,0.00,,,0.05,0,WeatherCatV1.20B785,2013-11-28 03:57:00,
2013-11-27 22:58:00,27.8,15.7,30.04,NNW,343,0.0,4.0,60,0.00,,,0.05,0,WeatherCatV1.20B785,2013-11-28 03:58:00,
2013-11-27 22:59:00,27.8,15.7,30.04,WSW,238,5.0,6.0,60,0.00,,,0.05,0,WeatherCatV1.20B785,2013-11-28 03:59:00,
2013-11-27 23:00:00,27.8,15.7,30.05,SE,138,5.0,11.0,60,0.00,,,0.05,0,WeatherCatV1.20B785,2013-11-28 04:00:00,
2013-11-27 23:02:00,27.8,16.5,30.05,SW,224,3.0,6.0,62,0.00,,,0.05,0,WeatherCatV1.20B785,2013-11-28 04:02:00,
2013-11-27 23:03:00,27.8,16.5,30.05,SW,226,2.0,6.0,62,0.00,,,0.05,0,WeatherCatV1.20B785,2013-11-28 04:03:00,
2013-11-27 23:04:00,27.9,15.8,30.05,WSW,242,7.0,10.0,60,0.00,,,0.05,0,WeatherCatV1.20B785,2013-11-28 04:04:00,
2013-11-27 23:06:00,27.9,15.8,30.05,WNW,292,7.0,8.0,60,0.00,,,0.05,0,WeatherCatV1.20B785,2013-11-28 04:06:00,
2013-11-27 23:08:00,27.9,15.8,30.05,WNW,302,6.0,11.0,60,0.00,,,0.05,0,WeatherCatV1.20B785,2013-11-28 04:08:00,
2013-11-27 23:10:00,28.0,15.9,30.05,NW,310,9.0,9.0,60,0.00,,,0.05,0,WeatherCatV1.20B785,2013-11-28 04:10:00,
2013-11-27 23:11:00,28.0,15.9,30.06,West,273,9.0,11.0,60,0.00,,,0.05,0,WeatherCatV1.20B785,2013-11-28 04:11:00,
2013-11-27 23:13:00,28.0,15.9,30.06,WNW,283,3.0,11.0,60,0.00,,,0.05,0,WeatherCatV1.20B785,2013-11-28 04:13:00,
2013-11-27 23:14:00,28.0,15.9,30.06,West,281,5.0,6.0,60,0.00,,,0.05,0,WeatherCatV1.20B785,2013-11-28 04:14:00,
2013-11-27 23:15:00,28.0,15.9,30.06,West,274,8.0,10.0,60,0.00,,,0.05,0,WeatherCatV1.20B785,2013-11-28 04:15:00,
2013-11-27 23:16:00,28.0,15.6,30.06,West,266,6.0,13.0,59,0.00,,,0.05,0,WeatherCatV1.20B785,2013-11-28 04:16:00,
2013-11-27 23:19:00,28.1,16.0,30.06,West,263,3.0,8.0,60,0.00,,,0.05,0,WeatherCatV1.20B785,2013-11-28 04:19:00,
2013-11-27 23:20:00,28.0,15.9,30.06,West,260,6.0,6.0,60,0.00,,,0.05,0,WeatherCatV1.20B785,2013-11-28 04:20:00,
2013-11-27 23:22:00,28.0,16.3,30.06,SW,224,1.0,8.0,61,0.00,,,0.05,0,WeatherCatV1.20B785,2013-11-28 04:22:00,
2013-11-27 23:24:00,28.0,15.9,30.06,West,266,5.0,12.0,60,0.00,,,0.05,0,WeatherCatV1.20B785,2013-11-28 04:24:00,
2013-11-27 23:25:00,28.0,15.9,30.07,West,275,4.0,12.0,60,0.00,,,0.05,0,WeatherCatV1.20B785,2013-11-28 04:25:00,
2013-11-27 23:28:00,28.0,16.3,30.06,West,277,5.0,9.0,61,0.00,,,0.05,0,WeatherCatV1.20B785,2013-11-28 04:28:00,
2013-11-27 23:29:00,28.0,15.9,30.06,WSW,245,3.0,9.0,60,0.00,,,0.05,0,WeatherCatV1.20B785,2013-11-28 04:29:00,
2013-11-27 23:30:00,28.0,16.3,30.06,WSW,245,4.0,9.0,61,0.00,,,0.05,0,WeatherCatV1.20B785,2013-11-28 04:30:00,
2013-11-27 23:33:00,28.0,15.9,30.07,NW,310,3.0,10.0,60,0.00,,,0.05,0,WeatherCatV1.20B785,2013-11-28 04:33:00,
2013-11-27 23:35:00,28.0,15.9,30.06,WSW,245,2.0,10.0,60,0.00,,,0.05,0,WeatherCatV1.20B785,2013-11-28 04:35:00,
2013-11-27 23:36:00,28.0,15.9,30.06,WNW,293,6.0,6.0,60,0.00,,,0.05,0,WeatherCatV1.20B785,2013-11-28 04:36:00,
2013-11-27 23:39:00,27.9,15.8,30.06,WNW,293,5.0,9.0,60,0.00,,,0.05,0,WeatherCatV1.20B785,2013-11-28 04:39:00,
2013-11-27 23:41:00,27.9,15.8,30.07,West,269,6.0,9.0,60,0.00,,,0.05,0,WeatherCatV1.20B785,2013-11-28 04:41:00,
2013-11-27 23:43:00,27.9,15.8,30.07,West,263,3.0,9.0,60,0.00,,,0.05,0,WeatherCatV1.20B785,2013-11-28 04:43:00,
2013-11-27 23:44:00,27.9,16.2,30.07,NNW,341,4.0,6.0,61,0.00,,,0.05,0,WeatherCatV1.20B785,2013-11-28 04:44:00,
2013-11-27 23:46:00,27.9,15.8,30.08,WSW,241,6.0,15.0,60,0.00,,,0.05,0,WeatherCatV1.20B785,2013-11-28 04:46:00,
2013-11-27 23:47:00,27.9,15.8,30.08,WNW,287,8.0,9.0,60,0.00,,,0.05,0,WeatherCatV1.20B785,2013-11-28 04:47:00,
2013-11-27 23:48:00,27.9,15.8,30.08,WSW,248,8.0,10.0,60,0.00,,,0.05,0,WeatherCatV1.20B785,2013-11-28 04:48:00,
2013-11-27 23:49:00,27.9,16.2,30.08,WSW,243,7.0,11.0,61,0.00,,,0.05,0,WeatherCatV1.20B785,2013-11-28 04:49:00,
2013-11-27 23:51:00,27.9,15.8,30.08,West,259,3.0,14.0,60,0.00,,,0.05,0,WeatherCatV1.20B785,2013-11-28 04:51:00,
2013-11-27 23:52:00,27.9,16.2,30.08,WNW,289,4.0,7.0,61,0.00,,,0.05,0,WeatherCatV1.20B785,2013-11-28 04:52:00,
2013-11-27 23:53:00,27.9,16.2,30.08,NW,304,3.0,9.0,61,0.00,,,0.05,0,WeatherCatV1.20B785,2013-11-28 04:53:00,
2013-11-27 23:54:00,27.9,16.2,30.08,NW,322,2.0,9.0,61,0.00,,,0.05,0,WeatherCatV1.20B785,2013-11-28 04:54:00,
2013-11-27 23:56:00,27.9,16.2,30.08,West,277,1.0,6.0,61,0.00,,,0.05,0,WeatherCatV1.20B785,2013-11-28 04:56:00,
2013-11-27 23:57:00,27.9,15.8,30.09,NNW,331,2.0,5.0,60,0.00,,,0.05,0,WeatherCatV1.20B785,2013-11-28 04:57:00,
2013-11-27 23:58:00,27.9,15.8,30.09,WNW,303,1.0,5.0,60,0.00,,,0.05,0,WeatherCatV1.20B785,2013-11-28 04:58:00,
2013-11-27 23:59:00,27.9,16.6,30.09,SW,219,1.0,1.0,62,0.00,,,0.05,0,WeatherCatV1.20B785,2013-11-28 04:59:00,